GFSFLT1_500_rhum_003.txt.gz
RH
6 4 6 3 6 9 6 5 4 6 8 8 8 7 6 5 4 4 5 6 6 6 6 8 9 9 4 1 1 1 1 1 1
7 5 5 6 14 11 14 10 6 2 4 6 8 7 6 5 5 4 3 3 4 4 5 6 8 9 6 2 1 1 1 1 1
5 5 4 19 11 18 15 13 12 10 5 5 5 5 5 5 4 4 3 3 3 4 6 7 8 9 7 3 1 1 1 1 2
3 5 8 23 17 18 17 16 14 12 10 8 6 5 5 4 4 4 5 7 8 8 7 7 8 9 8 5 1 1 1 1 2
6 5 11 21 22 18 20 21 22 19 15 11 9 8 7 7 9 9 11 11 10 12 11 10 10 10 10 6 2 1 2 2 2
15 9 9 21 21 18 21 26 28 29 28 24 20 19 23 25 27 29 29 31 31 29 27 25 23 19 14 10 4 2 2 2 2
16 14 9 16 18 20 20 23 26 28 31 32 33 34 36 36 38 40 40 39 39 39 38 37 35 30 23 17 9 2 1 2 2
14 14 13 10 18 19 22 23 23 24 25 26 27 29 32 33 34 35 37 40 43 44 44 44 44 40 34 27 27 16 2 2 2
20 19 13 11 12 18 19 21 21 21 21 24 26 27 27 27 26 27 28 31 38 43 48 53 54 51 42 33 21 26 15 5 2
22 21 19 12 9 17 19 18 18 17 19 22 25 27 28 28 27 26 25 27 32 40 45 54 59 62 56 46 27 16 36 26 6
20 18 13 10 8 9 18 20 20 19 24 28 30 28 29 29 30 31 29 28 33 37 43 50 53 62 60 51 48 24 17 25 29
13 11 9 8 7 8 13 18 22 25 26 25 26 25 22 15 28 33 31 33 36 40 44 44 48 55 64 56 52 51 32 25 40
8 8 8 8 6 7 12 13 16 19 16 11 9 7 8 7 28 34 35 39 43 47 46 44 46 55 63 62 67 84 57 28 37
6 7 7 8 7 7 9 8 6 5 5 5 3 2 2 10 36 37 40 43 48 49 49 48 52 63 72 84 90 86 80 52 64
6 7 7 7 7 7 7 8 7 6 5 6 4 6 23 39 38 41 43 46 50 52 52 56 66 75 83 89 82 86 91 90 77
6 6 7 7 7 7 8 7 5 4 3 5 12 28 38 38 39 42 48 54 59 62 63 70 78 85 90 90 94 91 84 92 92
2 3 3 3 4 4 5 5 4 5 10 24 32 28 32 38 44 53 63 68 68 68 72 80 85 82 82 80 79 94 100 90 86
8 10 11 14 16 19 26 30 35 36 38 37 34 36 41 47 59 66 74 73 74 82 92 93 87 88 76 72 72 89 94 93 98
21 21 21 21 21 21 24 26 30 36 42 57 66 62 62 57 43 70 75 68 74 78 87 98 93 88 68 50 69 92 96 97 100
35 37 39 39 39 39 39 40 42 49 50 52 55 55 72 76 40 16 49 51 80 68 86 100 98 89 65 58 72 90 94 95 100

GFSFLT1_500_rhum_006.txt.gz
RH
9 7 5 6 8 10 15 14 13 12 9 5 4 6 7 7 6 5 5 4 4 3 3 5 7 8 8 8 9 7 2 1 1
8 7 5 4 18 12 17 14 13 13 12 10 6 5 5 5 4 4 4 5 6 8 9 9 10 10 11 10 11 8 4 1 1
6 5 4 6 19 15 16 18 18 17 15 12 11 10 8 8 8 9 9 10 13 15 19 23 24 25 26 24 21 16 8 3 1
8 6 5 6 18 18 18 19 22 25 28 26 22 21 19 20 23 26 30 32 32 32 33 34 32 32 33 31 29 25 16 7 2
13 14 12 7 14 19 21 21 23 26 29 31 32 34 35 34 34 33 34 36 37 36 36 34 35 35 36 36 36 34 34 21 6
16 16 15 14 10 17 19 24 22 23 25 25 26 27 30 30 31 30 30 30 32 33 35 36 37 39 42 46 48 44 35 35 29
12 12 13 14 11 10 16 19 24 26 24 23 22 24 26 27 27 27 26 26 27 28 30 33 36 39 42 46 50 56 53 38 31
14 14 17 22 19 10 10 15 20 20 20 20 20 20 24 27 28 28 28 28 28 29 30 32 34 38 42 46 48 59 63 62 43
20 24 26 26 24 19 12 8 14 20 19 18 18 20 25 29 29 29 28 27 30 31 32 33 37 40 43 47 49 53 62 61 64
22 24 25 23 21 17 13 8 7 10 19 20 21 25 27 29 28 26 22 16 19 31 33 35 39 44 46 46 46 51 61 62 61
24 24 22 17 15 13 10 9 8 7 11 17 21 24 26 24 20 12 9 10 17 33 35 37 42 46 48 48 47 51 61 69 74
12 13 13 12 10 9 8 8 7 7 7 12 19 21 16 7 4 2 2 3 22 37 36 40 44 49 50 49 49 57 69 74 80
7 7 8 7 7 7 7 8 8 7 7 8 10 11 8 6 5 3 5 16 36 37 37 42 46 51 53 54 58 66 72 81 79
6 7 7 7 7 7 7 7 7 8 8 7 7 7 6 4 4 5 14 36 37 35 38 44 51 59 62 63 67 72 79 80 78
5 4 4 5 5 6 6 7 7 7 8 8 8 6 5 5 4 17 37 39 35 36 44 55 65 70 69 68 75 78 80 66 66
3 3 4 4 4 5 4 4 4 5 5 4 5 5 6 17 39 40 38 40 45 52 61 68 75 73 72 71 79 72 70 66 54
15 16 17 20 22 24 23 22 22 21 25 24 23 23 32 42 44 48 55 62 64 72 83 82 72 70 67 74 77 79 82 68 47
18 19 21 24 27 31 35 38 39 39 42 44 43 40 39 46 67 68 71 74 77 83 78 68 76 65 74 78 79 93 85 69 55
30 31 31 31 32 34 33 32 30 29 28 29 32 32 29 26 23 44 57 57 68 67 76 78 75 81 81 73 82 92 88 73 64
24 23 22 22 23 23 24 24 23 23 22 23 24 24 25 32 39 29 56 72 76 79 87 97 100 98 98 91 89 84 88 75 69

GFSFLT1_500_rhum_009.txt.gz
RH
9 10 8 6 5 12 12 17 14 16 15 14 12 9 7 6 5 5 5 7 8 9 11 15 19 23 25 28 28 27 26 21 13
7 8 7 5 4 15 16 17 18 19 22 20 17 14 12 10 10 12 15 20 24 27 30 30 29 29 29 29 29 30 32 32 29
8 7 6 3 5 14 19 19 20 22 24 28 31 32 30 31 33 33 31 30 31 31 31 29 28 28 29 31 33 36 38 39 39
10 11 10 10 6 7 20 21 22 22 24 26 27 28 30 31 31 30 30 30 30 30 30 29 30 31 32 34 36 37 38 41 47
13 15 15 16 15 9 8 19 22 23 23 23 24 24 25 26 26 26 26 24 24 25 26 27 29 30 31 32 35 38 40 42 44
12 13 12 13 14 13 10 9 13 19 23 24 24 24 23 22 23 26 25 25 25 26 26 26 27 29 31 34 36 38 41 44 49
15 14 13 13 14 18 22 20 14 9 15 20 20 20 20 20 20 25 27 27 28 25 21 19 25 30 31 32 35 38 42 44 48
18 17 16 16 20 25 27 26 24 20 13 9 16 20 19 18 19 24 28 30 29 26 22 13 8 23 30 31 34 38 43 46 46
18 20 21 22 22 23 24 24 20 19 16 12 8 9 18 20 21 24 27 29 27 24 16 6 4 11 29 34 35 38 43 48 48
28 28 27 27 26 24 24 20 15 14 12 10 9 8 7 11 18 20 24 24 20 12 5 3 4 16 34 36 37 40 44 49 50
19 20 18 16 15 14 14 13 12 10 9 8 8 8 7 7 10 16 18 15 8 5 3 3 7 28 37 37 39 43 48 52 54
13 11 10 9 8 8 8 8 7 7 7 7 8 8 8 7 6 7 8 6 4 3 3 5 16 37 38 36 40 45 53 59 62
6 7 8 7 7 7 7 7 7 8 8 8 8 8 8 9 9 8 6 4 3 3 3 10 33 42 37 38 46 55 64 68 67
6 5 4 4 4 4 4 4 4 4 5 5 5 6 8 9 9 8 6 4 4 4 15 40 44 42 43 50 58 67 73 71 69
3 5 6 9 10 13 15 16 17 18 18 18 18 17 16 14 10 8 8 10 23 39 46 47 48 54 60 65 73 77 73 69 70
17 17 18 19 20 22 24 26 28 31 34 33 35 35 35 34 35 40 44 47 52 56 65 70 71 71 75 79 78 77 72 65 61
24 26 28 30 30 32 32 32 32 32 33 32 30 28 32 41 49 54 59 64 67 69 70 74 75 68 69 84 84 82 78 68 66
31 29 28 26 22 22 22 21 19 19 20 20 19 18 17 18 20 24 26 29 29 36 43 50 63 70 76 86 92 100 96 90 88
21 19 17 16 16 15 17 19 20 22 20 27 27 25 23 17 14 18 27 55 54 63 77 92 99 98 96 98 98 99 98 96 86
16 17 20 22 23 22 20 16 12 12 13 18 26 34 38 42 43 34 37 47 68 88 94 98 98 100 99 97 94 96 98 97 91

GFSFLT1_500_rhum_012.txt.gz
RH
9 9 9 8 7 6 6 15 16 16 17 19 21 18 15 12 11 12 14 16 21 22 24 26 26 26 26 26 27 27 29 31 33
10 8 7 7 6 3 5 15 17 18 19 22 24 27 28 28 26 26 27 27 28 28 29 28 28 28 28 28 27 28 29 29 31
8 8 7 7 5 4 5 11 20 21 19 21 25 26 25 25 26 27 27 28 29 29 27 27 27 26 26 26 26 26 28 30 29
8 8 10 12 12 13 11 7 10 17 21 21 22 23 23 23 23 24 25 25 24 24 23 24 24 25 26 27 28 28 30 30 30
8 10 13 14 16 16 16 15 12 10 12 13 17 20 21 21 21 21 22 24 25 25 25 25 22 19 14 13 25 30 31 32 31
9 11 12 12 13 13 12 12 13 16 20 21 16 11 14 18 20 20 20 20 23 25 26 26 24 23 20 10 8 17 28 30 31
20 20 19 19 17 16 16 16 19 24 26 26 24 22 16 11 12 18 19 18 19 23 25 27 26 25 21 13 6 8 21 31 32
22 21 20 18 18 19 21 22 23 22 23 25 22 19 18 13 10 8 10 17 20 21 24 26 26 24 18 11 7 7 18 33 34
27 26 25 27 27 27 27 26 27 27 26 22 17 15 13 11 10 9 8 7 7 13 18 21 21 18 11 8 6 6 17 33 35
29 29 28 23 20 19 17 16 13 12 12 12 10 8 8 8 8 8 8 6 5 5 6 8 8 6 5 4 4 6 21 37 36
21 15 11 11 11 10 10 9 8 8 7 8 8 8 8 8 9 10 10 10 10 8 6 5 4 3 3 2 3 9 35 41 36
4 3 5 6 6 7 7 7 7 6 6 6 6 6 6 6 6 6 7 9 11 12 12 9 5 4 3 2 6 30 45 42 40
3 4 4 5 5 4 4 3 3 4 4 5 6 6 8 9 8 9 9 10 10 10 8 6 5 5 4 11 37 47 47 47 52
1 3 7 9 12 16 17 18 17 19 22 23 26 28 30 31 32 32 30 29 26 22 17 17 21 31 42 49 52 58 64 67 69
15 19 21 21 23 26 28 28 29 30 33 30 33 34 36 39 43 45 46 47 49 50 51 54 58 62 66 69 69 67 67 73 78
21 23 28 32 34 35 33 30 27 25 22 19 18 17 18 18 19 19 20 20 21 21 22 24 25 30 38 49 55 60 70 75 77
35 36 34 30 26 22 18 16 15 15 18 15 13 13 14 16 22 31 34 39 39 37 39 37 35 34 34 36 46 51 64 77 83
33 28 23 19 17 17 17 15 13 11 9 8 7 6 6 6 6 6 7 9 16 31 38 49 53 59 66 67 67 74 81 80 80
22 19 18 14 10 8 8 8 8 8 9 9 11 10 9 8 7 8 8 9 10 14 26 39 56 71 85 92 95 98 99 100 96
12 8 8 8 9 9 10 10 10 10 10 10 11 12 13 13 12 10 10 10 10 11 15 29 51 92 100 98 100 100 100 98 96

GFSFLT1_500_rhum_015.txt.gz
RH
12 11 10 9 9 8 7 5 7 15 16 17 16 18 20 21 22 23 21 20 22 24 25 26 26 26 27 26 24 24 25 25 25
12 12 10 8 7 7 6 3 5 12 18 18 17 18 21 25 25 26 25 27 28 26 26 27 27 26 24 24 25 26 26 26 26
11 11 9 7 8 9 9 9 8 7 11 15 17 18 20 21 23 24 23 23 24 24 24 24 23 24 24 23 20 18 19 23 27
10 10 8 8 11 13 14 15 15 15 13 11 11 14 14 14 17 19 20 21 22 23 23 24 24 25 24 22 21 19 12 9 23
8 9 9 9 11 12 13 13 13 13 13 13 16 18 24 23 20 15 13 17 19 20 20 21 24 26 26 26 25 24 20 12 8
9 8 8 11 15 16 17 17 16 15 15 17 22 25 26 25 24 21 18 14 10 13 18 20 19 22 27 28 28 26 23 13 7
26 24 24 23 22 22 20 19 19 20 22 23 24 24 25 25 23 18 18 15 12 9 8 7 10 15 20 23 25 24 18 9 5
25 26 26 26 26 25 26 27 26 26 26 26 27 26 20 15 14 15 13 11 10 9 8 7 7 6 5 6 10 11 7 4 3
27 28 29 27 26 26 25 19 16 16 14 14 12 11 10 9 9 9 8 9 9 10 10 10 8 5 4 4 5 4 4 3 2
26 24 22 20 17 12 8 8 9 9 9 9 8 8 7 7 7 8 8 8 9 10 11 11 11 12 11 9 7 6 4 3 2
12 8 3 2 2 2 4 6 6 7 7 7 6 6 5 5 5 5 6 6 6 6 6 6 7 8 10 12 12 8 4 4 2
4 1 1 2 3 3 4 4 4 4 5 7 9 11 14 18 19 20 22 23 23 23 22 22 20 18 16 13 9 6 5 5 6
2 2 3 5 7 9 11 14 17 18 18 19 20 23 26 28 30 31 32 34 35 37 38 39 40 41 42 43 43 42 41 44 49
6 10 14 18 21 21 20 20 21 25 28 27 32 32 31 29 25 22 20 19 18 18 19 20 19 20 21 24 27 31 38 48 56
11 16 21 23 27 31 33 34 34 30 25 20 16 14 14 16 19 20 19 21 23 19 19 25 30 32 31 29 26 25 24 25 29
19 24 30 37 39 36 29 21 16 15 14 12 11 8 8 7 7 7 8 8 9 9 10 11 12 15 30 36 41 44 43 42 41
37 41 39 33 24 19 15 12 9 8 9 8 7 7 7 8 8 9 9 10 11 12 13 13 13 13 13 17 32 38 45 44 54
41 31 22 16 12 8 8 9 10 12 13 13 12 11 11 10 12 12 13 13 12 12 11 12 13 14 14 15 15 18 30 43 43
23 17 11 10 12 13 15 16 16 16 17 18 18 18 17 16 14 14 13 11 9 8 7 7 8 10 12 14 15 17 25 44 68
19 14 12 13 14 14 16 18 20 20 20 20 19 18 15 11 11 14 12 11 10 9 9 8 7 6 10 19 25 32 41 70 96

GFSFLT1_500_rhum_018.txt.gz
RH
11 11 12 11 10 9 9 8 7 4 6 14 17 17 16 16 20 22 23 25 25 24 23 24 25 26 26 26 24 24 25 25 22
13 13 12 12 11 8 7 7 7 5 5 7 12 16 18 18 19 20 21 24 24 25 25 25 25 25 24 23 24 24 21 18 14
11 13 11 11 9 8 10 12 11 12 12 11 11 12 13 14 15 15 15 16 18 22 22 23 23 24 24 24 25 24 23 23 22
7 7 7 9 9 9 11 13 14 15 15 15 15 13 12 12 16 22 24 24 22 18 14 18 21 20 20 22 26 27 28 28 27
8 7 7 8 9 9 10 11 13 15 16 16 14 14 14 16 22 24 23 22 23 22 19 15 10 13 19 20 19 20 24 29 30
30 27 25 24 23 23 23 23 23 22 21 19 20 20 20 22 24 25 26 24 22 21 18 17 13 10 8 7 8 11 15 18 21
26 27 25 24 24 25 25 25 25 25 24 25 25 26 24 25 25 25 21 15 14 15 15 12 11 10 9 7 7 6 6 6 7
27 27 27 26 26 26 27 27 28 25 24 20 15 15 15 16 14 12 11 10 9 9 9 9 9 9 10 11 10 8 5 4 5
29 30 28 27 26 24 22 19 17 12 8 7 8 9 9 9 9 8 8 7 7 7 8 8 8 9 10 10 11 10 10 11 9
28 26 23 20 15 8 2 2 2 3 4 5 6 7 7 7 6 6 6 6 5 6 6 6 6 6 6 6 7 7 7 9 11
25 19 15 10 3 1 1 2 3 4 4 4 4 6 7 10 12 14 18 20 22 22 23 25 26 27 26 26 25 24 22 20 18
10 5 5 3 2 3 4 6 10 14 17 19 20 20 22 24 27 30 32 31 31 32 30 28 28 27 26 26 27 31 36 40 41
4 4 7 8 10 13 17 20 22 23 23 27 33 34 33 30 25 20 17 15 15 15 17 17 16 17 19 21 22 22 21 22 22
6 9 11 13 15 20 24 28 32 36 34 32 25 17 13 12 11 10 9 8 8 8 8 8 8 8 7 7 8 8 11 16 23
11 14 18 25 30 34 38 38 34 26 18 14 11 8 8 9 10 10 10 10 10 10 9 9 10 10 10 10 10 11 11 11 11
20 31 36 39 40 35 28 18 12 9 9 10 11 12 13 15 15 17 17 16 16 15 14 14 14 14 14 14 14 14 13 13 14
38 41 39 33 25 18 13 11 11 13 14 14 14 13 16 18 18 19 19 19 18 17 15 13 12 11 10 9 8 8 8 8 8
40 32 26 23 21 16 13 16 16 12 13 13 14 14 15 15 16 17 17 16 15 14 14 12 12 11 11 10 10 9 9 9 8
29 25 25 17 14 18 19 13 11 10 9 11 15 17 16 16 14 15 16 16 17 16 15 14 13 11 10 10 9 9 9 9 9
30 22 14 17 20 16 13 13 14 14 15 17 17 18 19 19 18 14 15 16 17 16 16 14 12 10 8 7 7 6 7 8 9

GFSFLT1_500_rhum_021.txt.gz
RH
13 12 11 11 12 12 11 9 8 7 6 4 4 8 10 13 17 19 20 21 22 22 24 25 26 26 27 27 26 25 24 24 24
14 14 14 14 13 11 11 8 7 8 8 7 7 7 9 14 14 14 17 18 18 19 19 20 22 23 24 24 24 24 24 25 25
8 10 11 12 11 9 10 8 10 12 13 14 15 15 14 13 12 11 10 12 19 24 24 22 19 16 18 22 22 21 22 25 27
12 7 8 8 8 8 9 9 9 11 12 13 14 15 15 14 13 14 17 19 23 25 24 24 24 23 18 13 12 17 20 20 19
25 26 23 14 10 9 9 10 16 20 22 21 21 20 20 19 18 16 18 19 22 25 27 26 25 23 20 17 16 12 9 12 19
32 28 28 29 28 26 25 23 23 24 24 24 25 25 26 25 25 26 24 25 25 24 24 20 16 14 16 16 14 12 10 9 8
37 32 30 28 27 27 27 28 27 26 26 26 27 25 26 23 17 14 16 19 19 17 13 11 10 11 12 11 10 9 9 10 9
32 28 26 26 28 28 29 28 27 26 24 23 18 13 9 6 6 8 10 10 9 8 8 7 7 7 7 8 8 8 8 8 9
36 32 30 28 27 25 24 23 20 11 3 2 2 3 3 5 6 7 7 7 6 6 6 6 6 6 6 6 6 6 6 6 6
31 29 28 26 23 18 13 8 3 1 1 2 3 4 5 6 7 9 12 15 17 17 18 22 24 25 26 26 27 28 28 28 27
29 28 25 17 10 6 5 3 3 4 8 13 16 19 22 23 23 24 27 28 30 29 26 23 20 18 17 16 16 17 18 20 23
36 32 23 12 5 4 6 9 14 18 19 22 25 27 31 33 30 25 19 14 12 11 10 9 9 8 8 9 11 14 16 18 21
34 17 8 6 7 10 13 14 16 21 22 30 34 31 21 14 11 10 9 9 10 10 11 12 12 11 10 9 8 8 8 8 8
16 8 8 10 17 23 27 29 32 34 31 25 14 10 10 10 12 12 11 12 11 12 13 13 15 16 17 16 15 14 13 12 12
8 10 13 28 35 38 38 35 28 22 17 14 13 13 13 12 12 11 13 14 15 16 16 17 18 19 19 18 18 18 17 16 14
13 31 40 41 40 33 28 22 21 18 15 15 15 14 12 11 10 10 12 13 15 17 17 17 17 17 17 16 15 14 13 13 12
33 43 45 38 31 26 24 22 16 14 18 18 14 12 13 13 14 14 14 15 16 18 18 18 18 18 18 17 17 16 14 14 14
50 45 36 32 31 28 20 15 18 20 16 15 15 13 12 11 12 12 15 17 18 18 19 19 19 19 18 18 17 16 16 13 12
42 35 36 39 30 18 19 18 16 16 16 16 17 16 15 12 9 13 17 19 19 19 19 19 18 17 16 14 13 12 11 10 10
37 43 43 28 21 18 18 21 21 20 18 18 17 16 18 21 20 16 17 17 18 18 16 15 14 13 11 10 9 9 9 9 8

GFSFLT1_500_rhum_024.txt.gz
RH
9 13 13 12 11 12 12 12 12 10 8 7 6 5 5 7 10 13 14 15 15 16 17 16 17 19 21 23 24 24 25 25 24
8 11 14 15 14 14 14 12 11 8 8 11 12 12 12 10 10 10 11 12 12 12 13 18 23 25 23 20 17 19 22 23 23
11 7 7 8 7 8 8 8 9 9 10 11 13 14 14 14 14 14 14 14 14 15 17 20 24 25 24 23 24 22 17 16 20
25 22 22 17 8 7 8 8 9 10 11 11 12 15 20 21 21 20 19 18 15 16 17 19 22 24 25 25 25 24 22 18 14
40 34 30 28 28 30 28 26 24 23 23 22 23 24 24 23 24 24 25 25 25 22 21 24 25 26 24 23 21 18 16 18 17
37 39 39 37 32 28 27 26 26 25 25 26 26 27 28 28 30 29 29 24 19 14 14 18 21 20 17 13 11 11 13 15 15
33 34 36 34 32 30 28 27 27 27 28 27 27 27 25 21 18 15 12 7 6 7 9 10 11 10 8 8 7 7 7 8 8
35 35 35 35 34 31 29 28 27 26 25 24 20 12 2 2 3 4 4 5 6 7 7 6 6 6 6 8 9 9 10 10 10
37 34 32 32 29 26 25 26 24 20 18 14 8 2 1 3 4 7 8 10 15 16 16 18 21 24 25 25 25 25 25 25 25
34 34 33 32 33 32 26 19 12 8 6 3 3 6 10 16 18 21 24 27 29 30 27 24 21 17 15 14 13 13 13 13 14
36 35 36 37 35 24 13 6 4 3 5 8 12 17 21 26 28 31 29 23 17 12 11 10 10 11 10 10 10 9 9 8 8
35 37 39 39 26 13 6 6 9 10 14 18 26 30 33 31 25 18 14 11 10 11 12 12 12 11 11 10 11 12 13 14 14
40 40 42 26 9 6 8 18 26 32 34 36 35 29 21 14 12 11 12 13 13 12 12 12 12 12 13 14 15 16 17 18 19
43 44 27 8 7 12 26 35 37 36 33 28 23 19 15 14 14 15 15 13 12 12 11 11 11 12 13 14 15 16 16 17 17
45 31 8 9 23 37 44 41 34 30 26 23 22 18 15 16 17 16 13 13 13 14 14 13 13 15 15 17 18 18 18 18 18
28 7 6 22 41 47 41 34 30 28 26 22 18 17 18 17 15 15 16 16 15 16 16 16 15 18 19 20 20 20 20 20 19
8 7 23 38 45 40 33 34 33 27 20 19 17 17 18 19 19 18 16 16 16 17 18 20 22 22 20 19 19 19 18 18 18
10 15 31 44 38 37 38 30 24 21 20 21 21 19 19 18 18 18 18 19 19 21 22 22 22 21 20 19 18 17 16 14 14
25 42 41 38 35 26 23 21 20 22 23 23 23 22 20 19 18 20 21 21 22 22 22 23 22 20 18 16 14 13 11 10 9
42 40 34 27 26 23 22 24 26 25 26 25 25 27 27 27 23 18 20 21 22 22 23 22 19 17 16 14 12 11 9 7 6

GFSFLT1_500_rhum_027.txt.gz
RH
5 8 11 13 14 13 11 11 12 12 12 9 8 8 8 6 5 6 9 14 16 17 15 15 15 16 20 22 23 20 18 22 24
9 7 8 11 14 15 15 15 14 13 10 10 10 12 13 14 14 14 14 12 11 13 12 12 11 14 18 23 24 24 23 22 20
22 18 14 9 7 7 7 7 8 8 8 9 9 11 12 13 13 14 15 18 17 17 15 15 15 17 19 22 24 24 24 23 23
36 32 30 26 23 23 22 18 12 9 8 9 9 10 14 19 22 22 22 22 22 22 21 21 20 20 22 22 23 27 26 24 23
39 38 39 38 36 33 29 26 26 29 30 28 26 24 25 26 28 29 28 28 30 31 30 28 25 22 22 22 23 23 22 18 14
39 34 33 35 37 38 37 34 31 29 28 27 27 27 27 28 28 26 25 22 18 18 18 13 8 7 9 12 14 15 12 9 9
36 35 32 34 36 35 32 30 30 29 28 28 26 23 21 18 15 11 4 2 3 3 4 4 6 7 8 8 8 8 7 7 7
41 41 40 38 34 31 30 29 28 27 25 24 22 20 18 16 9 2 2 3 5 7 8 9 13 14 17 19 20 21 23 25 25
34 37 36 34 32 33 34 35 33 31 26 19 14 9 6 4 5 9 13 18 22 23 27 29 29 27 25 20 17 14 14 13 13
42 38 38 36 35 37 38 38 30 18 11 7 5 5 7 10 13 18 24 29 33 32 28 23 18 14 12 11 10 10 10 11 11
41 38 37 35 36 38 40 35 17 8 6 6 8 12 16 17 21 25 31 31 26 19 14 12 11 12 12 13 12 12 13 13 13
42 37 38 38 39 41 40 16 6 6 10 21 26 29 34 35 33 30 25 15 12 11 11 14 15 14 13 12 11 11 11 12 12
42 40 37 41 46 42 20 6 8 17 30 38 38 34 31 27 24 19 15 14 14 15 16 15 14 12 12 12 13 13 13 12 12
58 46 49 48 39 14 5 5 15 33 42 40 34 29 27 25 22 18 16 16 17 18 16 15 14 14 14 14 15 15 15 14 14
57 53 47 32 17 9 6 22 36 39 39 35 32 30 26 22 20 19 19 18 17 17 17 17 17 17 16 15 15 14 17 19 19
50 45 30 18 12 9 18 39 43 38 36 36 34 30 24 22 20 21 21 20 20 20 20 21 20 20 19 19 18 18 18 19 20
42 27 19 13 10 18 38 41 38 34 32 28 24 22 22 22 23 24 25 25 26 26 26 26 26 24 23 24 24 24 24 23 22
23 16 11 20 38 43 40 35 29 24 22 21 22 22 25 26 27 27 28 28 28 28 28 28 28 28 27 27 26 25 24 22 21
13 14 31 43 42 31 28 27 24 23 26 28 27 27 25 23 22 25 28 28 27 27 27 28 28 26 25 24 24 23 21 20 18
22 44 47 37 29 29 28 26 26 28 30 30 33 34 35 33 27 20 23 26 30 30 28 27 26 25 23 21 19 17 15 13 12

GFSFLT1_500_rhum_030.txt.gz
RH
9 6 6 9 13 13 14 12 11 11 12 12 12 11 9 8 8 7 5 5 6 11 14 14 15 15 14 14 16 16 18 18 19
17 13 8 7 8 10 14 15 15 14 14 14 13 10 9 10 12 12 13 14 14 14 12 13 14 12 11 11 12 18 21 22 22
31 29 23 18 14 9 8 8 8 7 8 8 8 9 10 10 12 13 13 14 16 18 20 20 19 17 16 16 17 18 20 23 24
40 38 36 34 31 29 27 24 24 24 23 18 18 17 16 17 17 19 22 24 24 25 26 26 26 26 25 25 23 23 23 22 23
43 41 39 38 38 39 41 39 35 32 29 28 27 27 27 27 28 28 28 28 27 27 26 25 24 26 27 28 26 24 23 21 22
33 37 39 36 34 34 37 37 37 35 33 31 30 28 28 28 27 26 26 23 21 15 12 4 2 3 4 7 6 6 7 10 12
32 35 40 40 40 40 38 33 29 27 27 27 27 26 25 27 24 20 19 19 16 9 2 1 3 5 6 6 7 8 8 8 8
40 39 36 38 38 33 30 31 33 35 36 35 33 29 25 20 15 10 8 9 6 5 7 9 15 19 24 24 25 25 27 23 21
51 45 45 44 39 38 36 36 37 38 40 36 24 16 9 8 7 6 7 10 14 19 23 25 29 31 33 31 29 25 21 18 16
57 55 53 51 42 38 37 37 39 40 40 22 9 7 8 10 11 15 19 22 25 29 32 34 34 30 24 19 14 12 11 11 11
42 45 49 52 47 39 36 38 41 43 28 8 7 11 19 24 32 37 40 39 38 36 33 28 21 16 13 11 12 13 13 14 14
36 30 35 43 44 40 36 33 37 34 9 4 10 21 28 32 37 37 34 32 29 26 20 14 12 11 13 15 17 16 14 13 13
52 49 49 43 34 33 33 42 32 14 7 7 17 27 34 38 37 34 30 27 25 22 20 18 17 16 16 17 17 15 14 14 13
62 64 61 56 52 49 40 25 16 12 10 17 37 42 40 37 35 33 30 27 24 21 20 19 19 19 18 18 17 17 17 17 17
60 57 54 51 47 32 23 19 14 9 12 31 42 39 37 36 33 29 26 25 24 23 22 22 22 22 22 22 22 21 22 21 21
51 50 46 40 29 23 18 12 12 15 31 40 38 35 32 27 24 23 23 23 24 26 27 26 25 25 25 25 25 24 23 23 22
46 42 34 26 20 16 11 14 31 40 42 37 32 27 25 24 26 29 30 30 30 30 30 30 31 30 30 32 33 32 30 29 27
37 30 23 18 12 21 43 46 41 33 31 29 28 30 35 36 34 32 34 34 35 35 35 36 35 34 33 32 32 31 29 27 26
26 20 14 15 30 43 44 38 33 29 27 28 36 40 38 34 33 34 36 36 35 35 36 36 34 32 28 24 20 16 14 12 11
18 13 22 40 48 41 32 32 30 29 38 40 35 34 34 34 33 30 31 36 37 34 30 23 18 12 8 6 6 6 5 5 5

GFSFLT1_500_rhum_033.txt.gz
RH
21 14 8 6 6 10 12 14 13 13 12 11 11 13 13 12 11 9 9 8 8 6 5 7 10 13 15 15 14 13 16 18 18
31 28 18 15 10 8 8 9 12 14 15 15 15 15 14 13 11 10 10 12 13 14 14 13 14 14 13 13 12 13 11 13 20
37 34 31 30 28 25 22 17 13 9 8 8 8 8 8 9 9 9 10 10 11 12 13 14 17 19 21 21 20 20 18 17 16
43 43 42 41 40 37 36 35 34 31 28 28 28 28 29 28 29 27 26 26 24 24 24 25 26 27 28 28 28 27 26 25 24
37 39 42 43 42 39 38 38 39 41 41 40 38 35 32 31 30 29 28 28 28 27 27 27 26 24 21 17 16 21 27 28 27
34 32 34 36 38 39 37 36 36 37 36 33 31 29 27 27 27 28 28 28 26 24 19 17 12 12 6 2 2 3 4 6 9
43 40 39 39 39 39 40 37 34 31 31 32 34 36 37 36 33 30 27 23 20 16 10 8 8 6 6 5 6 6 6 6 7
52 48 47 47 44 44 43 39 38 36 36 37 38 39 39 35 26 17 13 9 9 8 7 7 10 13 18 18 22 22 21 22 24
58 58 56 57 54 54 51 50 39 35 35 35 35 33 34 27 12 7 7 8 8 11 12 16 20 26 29 31 35 33 32 33 31
60 57 49 42 38 41 47 50 47 40 36 33 36 37 22 9 6 9 12 18 24 29 32 36 38 38 36 35 33 31 27 23 19
49 43 41 40 37 34 40 41 44 41 38 32 36 27 9 6 10 18 28 31 36 37 36 34 33 31 27 22 17 14 13 12 12
45 40 35 45 46 37 34 39 35 32 34 42 28 14 12 15 21 29 35 38 38 37 35 31 28 26 23 20 17 16 16 16 16
47 40 48 62 60 56 53 51 46 43 36 24 18 14 11 17 29 37 41 40 38 36 33 29 26 24 22 21 20 19 19 18 18
38 38 54 56 56 54 48 44 35 28 25 21 15 13 20 31 36 40 38 36 32 29 26 24 23 23 23 23 23 23 24 23 23
42 54 55 53 49 45 38 34 30 26 20 15 15 22 36 41 38 34 30 28 26 25 26 29 31 32 31 29 28 27 27 26 26
30 39 44 44 39 34 29 24 20 13 14 31 44 45 43 36 31 28 27 30 37 40 38 33 32 33 32 32 31 30 30 30 29
36 38 37 32 30 26 20 12 12 24 43 45 40 35 31 29 29 35 40 41 37 36 37 36 36 36 36 37 36 36 36 35 34
36 33 26 28 26 18 11 12 34 42 44 43 39 38 38 45 47 43 38 39 41 41 41 41 40 39 37 36 33 29 26 24 21
34 27 28 21 16 10 16 40 50 45 38 36 36 47 58 55 47 42 44 46 44 41 38 36 32 27 23 19 17 14 11 9 8
28 26 17 15 11 18 37 51 45 36 35 43 57 55 52 46 47 46 46 43 37 31 25 20 16 13 12 11 10 9 9 9 8

GFSFLT1_500_rhum_036.txt.gz
RH
28 29 23 16 11 7 6 7 10 13 14 14 14 14 13 12 13 14 13 12 10 9 10 10 9 6 8 10 13 15 15 15 16
32 32 31 30 26 21 19 15 10 8 9 11 12 13 12 12 11 10 10 9 9 10 12 14 14 15 15 14 14 14 14 13 13
34 36 36 34 31 30 30 30 31 29 27 24 20 18 18 18 19 18 17 17 15 12 12 13 14 14 15 17 19 21 22 22 21
43 43 43 42 40 39 39 40 39 39 39 40 39 37 36 35 33 32 30 29 29 29 29 28 28 28 28 28 28 28 28 28 28
38 36 35 36 37 39 41 41 38 36 34 35 36 36 36 34 33 30 30 28 28 28 28 28 27 26 24 24 22 19 14 12 14
42 41 38 35 35 36 38 39 40 39 37 35 33 32 33 34 34 35 35 34 33 32 30 27 26 24 21 17 14 12 7 2 2
49 47 45 44 42 43 44 44 44 43 39 37 36 37 37 37 35 35 36 33 24 17 16 17 16 13 10 8 7 10 9 9 13
59 58 53 52 54 52 49 46 48 51 49 46 38 34 32 30 30 26 27 19 9 6 6 6 7 8 8 10 15 20 25 29 31
59 60 58 58 52 46 44 42 39 41 44 46 46 41 36 31 27 27 18 10 8 7 9 15 17 19 23 25 29 31 33 34 35
59 61 61 52 45 40 39 41 39 39 40 39 40 40 33 30 30 26 18 14 13 16 25 32 38 37 36 35 34 32 30 28 24
70 63 50 44 43 37 43 57 54 58 54 40 33 33 35 35 26 19 14 13 19 28 37 42 41 38 35 31 28 26 25 24 21
64 53 44 48 42 46 57 61 62 60 58 50 42 34 27 24 22 16 13 15 21 33 42 42 40 38 36 32 29 26 24 22 21
56 45 46 42 38 46 56 58 55 52 50 39 34 32 30 26 21 18 24 32 38 40 39 37 33 28 25 24 23 23 23 23 23
49 46 43 37 50 52 51 52 49 47 40 34 27 22 18 14 17 28 36 40 39 36 31 28 27 28 31 35 37 37 36 34 32
48 45 26 26 35 43 44 42 38 31 26 20 14 14 26 41 46 42 37 34 32 31 33 38 43 44 42 39 38 37 36 35 34
48 35 28 38 40 39 32 29 30 22 14 12 21 32 42 43 40 38 37 37 43 49 49 47 43 42 42 42 41 39 38 36 36
49 45 32 33 36 31 28 28 19 17 12 13 33 46 43 42 37 36 42 52 55 51 46 45 46 48 46 43 39 37 34 32 30
51 55 50 42 34 28 26 16 19 15 13 26 39 44 41 39 43 52 52 52 50 49 53 55 52 46 40 35 31 28 24 21 18
50 48 48 42 31 25 16 21 16 18 34 40 44 45 50 52 47 57 57 54 56 59 54 46 38 31 27 23 19 15 13 12 12
44 40 41 31 24 17 22 19 22 38 48 48 50 63 66 65 56 50 58 60 57 47 36 28 22 19 17 16 16 15 14 12 10

GFSFLT1_500_rhum_039.txt.gz
RH
18 21 22 26 22 17 13 9 8 7 7 8 12 13 13 13 14 14 15 15 14 13 12 11 10 11 13 14 11 8 10 13 15
22 25 27 28 30 30 29 28 26 25 24 21 17 13 11 10 10 10 11 13 14 14 13 12 10 10 11 13 14 15 16 16 16
28 30 29 28 32 33 35 34 33 32 32 31 32 34 32 32 33 32 33 34 32 30 30 30 30 30 29 26 23 20 19 20 21
40 41 40 40 42 41 42 42 41 40 39 39 37 36 36 36 36 36 35 34 33 32 31 30 29 28 28 27 27 27 28 28 28
42 41 38 36 35 35 36 37 37 39 40 39 38 36 35 33 32 33 34 34 34 35 34 33 33 32 30 27 26 25 23 19 15
45 43 43 43 41 40 40 40 41 43 42 42 40 38 36 36 36 36 35 32 30 30 33 30 21 20 20 19 22 20 16 13 9
50 48 49 49 46 45 46 44 44 43 42 46 47 46 46 42 38 34 32 29 26 24 21 15 10 6 6 7 8 8 8 9 11
62 54 58 57 54 52 51 47 45 43 42 39 38 40 41 42 43 41 36 32 29 25 21 16 14 10 8 9 14 19 20 22 23
62 56 58 58 57 58 51 45 38 38 42 40 40 39 39 39 39 36 31 30 29 26 22 19 17 16 17 18 23 30 31 34 34
60 56 58 59 63 52 44 43 41 46 44 43 48 45 43 40 40 38 33 28 24 21 18 14 14 17 21 26 32 35 35 35 34
54 56 64 65 59 44 47 44 46 56 56 57 57 56 54 46 36 32 30 28 27 22 18 17 20 25 31 34 38 38 38 36 33
61 74 74 63 48 45 46 39 42 55 55 55 52 47 43 38 34 29 25 21 17 17 21 29 37 39 38 35 33 31 30 28 26
76 78 65 55 48 48 39 41 50 54 53 51 41 33 30 24 18 14 14 22 32 41 43 41 38 35 32 29 28 28 28 31 34
81 72 59 52 50 43 27 41 43 42 43 35 32 26 18 14 10 15 27 37 42 42 40 37 33 32 36 41 45 46 46 44 42
82 68 61 55 50 32 30 37 39 40 35 31 27 17 17 15 20 34 40 42 41 41 40 40 42 46 49 49 47 46 45 42 42
78 72 64 54 49 39 31 33 37 32 30 26 17 19 17 14 25 34 40 42 42 40 40 46 51 50 46 44 44 46 47 47 45
75 72 61 53 52 51 50 43 34 30 25 17 20 21 24 30 39 40 40 43 50 55 56 57 54 54 53 52 50 48 44 41 38
70 68 62 54 50 48 42 41 33 24 18 25 24 21 32 35 41 45 53 60 61 62 68 64 60 59 57 53 47 42 36 32 28
62 68 61 53 48 40 37 34 23 19 27 23 24 30 33 32 36 58 68 65 73 70 62 61 60 57 50 42 37 31 24 18 16
62 64 55 49 42 34 32 23 21 27 24 28 34 36 38 41 38 36 69 75 67 64 63 61 49 38 32 29 24 20 19 18 18

GFSFLT1_500_rhum_042.txt.gz
RH
16 16 17 18 19 19 17 15 12 8 8 8 8 8 8 9 10 12 12 11 9 9 9 9 10 10 9 9 10 13 15 15 10
20 18 18 17 22 25 25 26 27 28 28 30 30 29 29 28 29 30 31 31 31 30 29 29 30 30 30 30 26 18 14 13 14
33 28 24 23 23 23 24 26 29 31 34 36 36 37 37 37 37 37 37 37 37 36 35 34 32 31 31 30 29 29 28 28 28
38 37 38 37 37 37 38 36 38 39 40 39 38 38 37 36 35 34 32 32 32 33 34 34 34 34 34 34 32 31 28 28 26
44 42 41 40 37 35 34 35 36 38 39 40 40 39 38 36 34 33 35 36 36 36 34 31 31 34 32 26 24 24 26 28 26
56 49 45 44 42 42 43 43 44 44 44 44 43 43 45 46 44 41 37 35 33 32 30 27 24 22 18 13 10 7 7 10 11
61 64 51 50 50 50 51 47 46 43 41 42 41 40 39 38 39 41 41 42 40 38 34 30 28 25 22 19 16 11 8 8 11
70 66 64 61 57 58 56 54 53 50 44 37 38 38 36 38 39 40 39 39 38 34 31 30 28 25 22 20 18 18 16 16 18
76 65 63 61 59 58 58 61 52 45 42 44 43 42 46 45 40 38 34 35 35 34 31 27 25 23 19 18 15 18 20 24 25
71 62 60 61 59 59 62 61 48 47 45 47 56 58 58 57 54 48 42 37 35 32 31 29 26 23 20 19 18 18 22 28 32
65 58 60 62 63 68 63 57 46 47 42 41 54 54 54 53 48 40 33 27 22 18 16 14 12 12 14 18 23 28 34 35 36
67 65 65 68 75 72 62 51 47 46 38 43 51 52 49 42 35 30 22 19 13 8 10 15 24 33 40 41 41 39 37 34 31
69 74 78 84 84 66 57 51 52 34 40 51 48 42 39 34 34 22 21 19 12 14 22 28 34 36 38 39 37 34 32 32 33
75 83 84 81 77 64 60 57 51 28 26 32 39 39 31 33 24 20 21 19 17 24 32 37 40 41 41 41 41 41 42 45 48
78 89 90 82 76 67 64 57 49 36 32 34 38 34 32 28 19 25 22 21 24 30 36 39 40 41 40 39 39 41 43 41 37
82 88 86 82 79 74 65 55 51 46 46 48 42 36 28 19 26 26 22 25 30 33 33 34 35 37 39 37 34 33 37 42 46
85 89 84 77 74 72 66 56 52 47 44 45 40 29 20 26 27 25 29 32 36 38 40 42 42 38 37 42 50 53 52 52 52
86 88 86 80 70 69 68 59 51 46 40 36 30 21 26 28 28 34 35 38 45 49 50 47 51 57 58 57 55 55 54 52 50
96 88 79 73 63 65 67 56 47 44 40 29 22 28 27 26 30 39 42 50 52 52 62 69 67 63 61 60 57 54 50 47 44
58 61 62 62 57 63 57 45 45 43 29 24 28 28 31 33 34 38 47 56 72 73 71 66 65 63 60 55 52 48 43 37 32

GFSFLT1_500_rhum_045.txt.gz
RH
18 17 18 18 21 22 20 17 15 14 14 11 10 12 12 10 10 9 9 10 10 11 12 13 22 25 27 28 28 25 17 11 11
21 19 19 20 20 21 21 22 22 23 26 28 29 30 29 30 32 33 33 32 31 34 33 34 35 35 35 34 33 32 30 29 29
28 28 27 24 23 23 21 20 20 24 28 30 32 35 36 38 37 37 36 35 35 34 33 32 32 32 33 34 34 33 32 31 29
39 38 38 35 32 32 32 34 35 35 35 37 37 39 39 39 38 37 35 34 32 33 34 36 36 36 34 33 35 34 31 30 31
48 45 42 39 39 38 37 35 34 35 36 37 39 41 43 43 43 41 39 37 36 36 36 33 30 29 27 25 23 21 18 12 9
57 58 54 46 44 44 43 43 42 43 43 43 42 41 41 40 40 39 42 45 45 44 43 41 39 36 32 30 28 25 24 21 18
61 66 64 64 53 49 50 52 50 47 44 45 46 46 38 36 37 37 37 37 38 39 39 39 36 33 31 29 27 25 21 20 18
48 73 75 67 68 64 58 55 54 51 50 53 46 42 43 36 34 37 32 33 35 34 35 32 31 33 30 28 27 24 20 18 17
42 74 87 80 68 67 63 60 55 53 60 52 47 46 47 49 51 54 51 51 48 44 40 36 33 31 30 29 27 24 24 22 22
27 59 84 78 71 65 63 60 59 60 62 50 46 46 41 53 52 47 48 40 36 32 25 20 17 12 9 8 8 9 10 11 13
32 37 71 72 67 67 66 63 65 65 60 47 48 42 39 48 50 46 42 34 36 26 22 20 16 12 12 15 18 22 28 31 32
52 54 70 71 70 69 69 70 75 65 57 50 49 32 47 49 49 42 34 37 37 25 25 24 17 14 16 19 21 24 27 31 34
97 81 75 80 74 76 82 85 79 62 55 54 45 26 26 31 38 39 35 40 33 24 27 23 18 18 21 25 28 33 37 38 39
47 96 86 84 84 88 87 86 75 63 60 56 47 36 33 35 38 38 37 36 25 26 27 20 20 22 25 28 31 34 37 39 40
41 81 96 93 86 92 93 89 76 70 66 57 52 50 48 49 49 46 36 24 24 28 23 23 26 28 31 32 32 34 34 34 36
45 71 100 96 91 94 89 82 79 75 69 60 54 49 47 44 42 38 25 23 29 25 25 28 28 29 31 32 33 31 28 27 32
76 90 96 96 90 93 91 82 74 71 70 65 58 50 45 43 41 27 23 28 27 29 30 31 33 33 30 28 32 39 44 47 47
72 90 97 97 97 96 94 89 78 64 67 68 56 50 47 48 35 25 29 30 32 33 35 35 33 36 43 49 52 52 52 52 50
60 72 88 88 99 96 96 82 69 61 62 60 50 48 53 40 26 30 33 35 38 37 38 49 56 55 56 55 49 44 42 42 48
69 53 61 78 76 75 71 63 56 58 56 48 41 42 34 26 32 36 39 40 40 43 51 59 58 56 46 42 42 51 51 49 46

GFSFLT1_500_rhum_048.txt.gz
RH
11 13 13 14 16 18 20 20 18 17 16 17 18 17 17 19 20 22 20 19 18 18 17 19 24 28 29 31 31 32 32 29 29
15 18 17 16 16 19 21 22 22 24 25 25 26 26 24 24 24 24 24 27 27 30 34 35 34 34 35 35 33 33 32 32 32
16 23 26 25 24 24 25 26 25 24 24 26 24 24 27 29 31 33 33 36 35 36 35 34 34 33 34 34 35 36 36 36 35
19 27 35 37 38 37 34 32 36 37 36 32 31 34 36 37 38 39 39 38 36 34 33 34 36 37 37 33 30 26 24 23 22
23 30 43 44 43 42 40 38 37 36 35 35 35 38 38 39 41 42 41 42 46 45 42 39 37 37 38 37 36 33 31 31 28
24 36 56 57 56 48 45 44 43 43 42 43 43 42 40 39 39 38 37 38 39 40 40 42 43 41 40 38 35 33 31 29 26
24 25 35 61 63 61 54 49 47 46 48 46 44 42 42 42 38 39 32 33 34 35 36 38 37 36 35 33 30 29 29 27 26
27 26 29 43 62 66 66 64 59 57 54 53 52 47 52 42 46 42 42 48 48 47 48 39 36 35 34 34 33 32 31 31 29
29 29 28 40 56 83 74 68 69 67 61 56 52 56 56 45 46 43 50 47 43 45 40 36 32 26 22 18 14 10 9 9 9
32 31 31 31 51 78 81 78 69 64 62 59 56 60 56 45 45 41 46 46 46 41 35 38 32 25 25 22 17 14 14 16 18
37 34 31 37 38 55 77 74 71 66 62 59 63 63 55 49 42 41 44 46 44 39 36 43 39 26 25 22 19 16 16 16 18
39 38 31 35 53 59 72 72 71 69 65 63 74 65 54 51 35 34 41 40 41 38 36 43 36 26 26 23 18 18 18 19 21
29 23 24 29 96 81 67 76 77 78 82 87 81 64 58 54 45 34 35 36 40 44 48 38 27 25 28 22 21 22 23 24 26
32 20 18 24 68 91 78 80 82 86 88 88 79 68 65 57 53 52 52 52 53 50 41 29 24 29 26 24 25 26 27 28 30
43 36 20 21 34 50 86 88 85 90 92 91 83 77 72 64 56 53 51 48 46 46 36 25 28 29 28 28 29 29 31 31 29
62 61 58 33 36 46 71 98 90 86 93 87 81 76 73 70 63 54 50 49 52 47 32 29 31 31 30 30 32 32 31 34 38
63 55 64 80 64 88 86 96 98 92 90 92 90 81 68 67 65 58 51 53 50 36 29 33 33 32 33 33 34 36 41 45 44
57 68 72 76 89 92 89 92 98 98 93 93 88 78 66 61 58 52 46 48 37 30 35 36 35 36 36 39 43 48 50 42 25
69 70 80 89 70 61 65 69 74 80 91 93 86 66 58 56 52 42 38 32 32 38 39 41 41 43 45 50 53 50 36 30 37
80 74 70 72 71 76 74 75 79 76 62 52 51 56 56 46 39 33 30 35 42 42 44 46 49 53 58 57 47 32 34 44 43

GFSFLT1_500_rhum_051.txt.gz
RH
8 8 8 9 10 11 13 16 16 16 15 15 15 16 17 16 17 17 22 23 25 25 25 25 26 28 31 32 31 33 32 32 33
9 10 10 11 13 15 16 17 19 20 20 21 21 18 18 20 20 22 27 30 31 33 32 32 34 34 34 34 35 33 33 34 34
11 10 12 15 20 21 20 19 20 22 23 21 20 21 22 25 32 32 32 36 38 39 38 37 36 34 33 34 35 36 36 34 31
10 11 14 16 24 26 28 29 29 27 29 30 32 30 32 37 38 37 39 41 41 42 43 42 38 35 37 38 36 33 32 31 30
14 15 16 18 26 32 34 37 38 37 36 36 36 37 38 41 40 39 40 39 40 40 40 40 44 46 46 44 43 41 40 37 35
19 21 20 23 28 40 42 46 44 44 44 44 44 44 42 43 40 39 40 34 30 27 31 35 38 39 39 40 40 39 37 33 30
23 25 25 25 31 45 57 53 53 50 50 49 50 50 47 49 48 49 40 39 30 35 36 38 38 35 32 36 34 32 30 30 32
25 28 28 28 28 35 51 65 65 66 64 62 61 58 57 53 53 55 43 45 42 48 47 42 42 40 38 35 31 26 23 19 15
31 32 31 29 28 29 31 50 70 74 69 68 69 66 60 57 59 61 47 46 44 47 48 43 43 36 39 36 26 26 24 21 16
36 36 34 32 29 27 29 30 47 70 81 77 69 66 61 58 61 63 49 46 42 42 46 45 42 36 41 43 33 27 25 22 18
36 35 35 35 32 30 28 35 39 43 64 71 69 66 62 59 68 66 53 48 33 45 47 46 42 38 43 43 33 26 27 23 18
37 37 38 36 32 26 25 35 59 55 60 66 66 64 66 69 81 66 58 53 37 31 36 40 41 48 48 41 28 26 29 26 21
39 39 39 37 27 20 18 43 90 80 64 68 76 76 79 83 83 69 64 57 54 53 51 52 54 52 45 36 28 29 30 28 25
45 39 42 44 41 31 20 20 65 67 66 74 78 81 87 87 82 76 73 67 59 54 54 51 50 51 51 39 32 31 31 30 28
51 47 47 53 51 48 50 32 28 40 64 82 83 82 88 87 85 82 77 72 69 62 56 52 53 53 48 35 32 34 32 30 30
62 62 65 60 71 68 66 70 45 65 73 78 95 93 89 90 91 88 80 70 66 64 63 56 52 53 42 32 35 35 34 34 34
64 73 72 72 66 69 75 76 87 91 96 97 97 97 97 94 94 89 78 70 62 56 52 44 42 39 32 37 37 37 37 37 38
42 48 66 77 73 72 81 94 84 86 76 79 80 82 85 83 78 72 62 56 55 48 40 36 32 32 38 39 40 40 40 44 48
64 47 56 64 75 79 76 76 84 84 77 75 90 81 73 57 51 55 56 51 40 34 33 32 38 43 44 45 45 46 50 52 46
59 54 61 62 71 79 86 86 88 91 89 90 81 58 47 53 57 52 31 25 24 29 36 48 50 49 47 48 54 56 50 36 32

GFSFLT1_500_rhum_054.txt.gz
RH
8 8 8 8 8 8 9 10 11 12 13 14 14 14 15 17 20 22 23 23 22 22 21 24 28 28 27 28 28 29 32 34 32
7 8 9 9 9 9 10 11 12 13 14 16 19 19 21 22 22 23 24 26 28 27 31 34 35 36 35 35 35 35 34 34 35
8 8 8 9 10 10 11 15 17 17 18 19 20 21 26 30 29 29 33 36 36 35 36 38 39 38 37 36 35 35 37 38 37
10 9 8 9 10 12 14 19 22 24 26 25 26 32 36 33 34 37 38 38 38 40 40 40 41 42 44 44 40 38 38 36 35
15 13 13 14 13 16 18 26 31 34 36 37 36 38 39 40 39 43 43 43 40 38 35 30 28 34 38 40 41 43 44 42 41
18 18 19 21 21 21 25 30 43 41 40 42 42 45 46 50 51 49 47 47 48 42 36 28 28 28 32 32 31 36 39 40 38
23 23 25 28 27 27 28 34 41 55 50 50 51 54 56 59 58 56 54 53 54 48 45 41 44 44 42 41 40 39 38 37 35
21 23 26 29 31 30 28 28 29 40 52 57 62 66 68 70 69 65 58 54 60 51 47 44 45 42 45 44 37 39 34 26 26
24 25 28 30 32 32 30 27 27 28 34 50 64 72 72 71 70 67 63 57 62 57 48 45 43 47 45 48 37 43 45 38 30
28 28 32 33 34 34 31 30 28 28 31 35 41 63 80 78 71 68 63 59 65 63 52 38 39 45 48 48 40 38 45 40 31
34 30 31 35 37 36 36 34 30 28 31 44 45 48 61 68 66 64 62 64 74 66 56 46 30 43 48 44 41 44 48 40 29
43 43 35 35 36 35 38 34 24 21 22 61 79 59 66 74 73 74 72 74 82 70 62 56 53 46 41 42 48 54 48 40 30
46 45 45 42 38 39 40 38 34 22 19 38 87 68 70 81 82 86 88 88 83 76 70 67 58 55 54 54 52 50 54 48 37
48 52 51 48 45 40 43 46 45 45 39 25 33 42 60 88 90 88 92 92 88 84 79 76 72 68 63 60 56 54 54 50 38
37 49 56 57 52 54 60 59 64 64 62 72 59 64 74 73 95 97 93 94 93 90 86 80 72 67 64 63 65 53 52 45 33
30 34 42 62 63 64 63 66 63 66 72 71 87 94 95 95 98 96 93 96 97 96 90 80 73 65 57 55 47 42 40 35 35
50 46 47 41 55 63 68 76 74 69 78 83 78 87 83 77 77 83 87 80 75 68 62 58 55 55 52 43 37 32 32 39 41
55 57 49 45 66 62 66 74 74 74 77 78 79 83 89 86 87 85 80 60 52 55 58 53 42 35 32 28 29 35 44 44 42
55 58 63 84 71 62 62 68 66 73 78 78 79 87 85 91 93 66 51 49 46 38 32 29 26 26 30 37 48 52 52 50 46
88 86 81 78 72 65 64 69 75 84 90 89 94 92 86 83 71 68 58 62 68 58 47 37 33 33 41 50 54 54 52 51 52

GFSFLT1_500_rhum_057.txt.gz
RH
8 7 7 8 8 8 9 10 10 11 12 14 14 15 14 15 16 18 21 22 22 23 24 24 25 26 25 26 28 30 32 34 34
12 9 7 7 8 10 9 11 12 12 14 15 17 18 18 20 21 22 23 25 26 33 33 34 35 34 34 35 37 37 36 36 35
19 16 12 10 9 8 8 10 11 11 15 18 21 22 23 24 27 32 35 37 39 39 39 38 37 37 39 41 43 39 36 36 38
19 19 16 13 11 11 10 12 14 15 20 24 32 31 34 36 40 39 39 41 42 42 42 40 34 33 29 33 40 44 47 46 44
21 20 18 15 15 15 16 16 18 18 28 35 40 41 40 38 40 42 45 48 49 46 43 42 37 32 28 24 27 31 36 41 42
18 20 21 20 19 19 21 21 22 24 29 40 42 45 46 47 48 50 54 56 55 52 48 51 47 44 39 40 39 38 39 36 33
20 19 20 23 24 25 27 28 27 26 28 36 52 52 52 53 53 54 58 61 65 60 54 56 53 47 46 47 40 43 42 38 36
26 25 24 22 24 26 28 30 28 26 26 28 34 44 59 68 70 72 72 72 70 66 60 57 58 48 47 45 45 43 46 39 45
23 27 28 27 27 29 31 32 31 29 28 28 29 30 39 54 68 77 80 79 72 67 62 59 63 55 46 41 44 46 48 43 38
21 24 29 30 30 32 34 34 32 32 32 31 30 29 37 42 51 62 69 73 70 67 64 61 66 58 52 34 39 47 52 46 38
30 34 32 37 38 33 36 37 37 37 35 30 22 23 35 66 63 63 65 69 71 68 68 70 75 65 58 54 41 36 38 40 42
22 25 34 43 46 40 36 36 38 36 35 34 26 19 22 68 82 62 70 72 77 78 78 81 81 74 68 62 56 51 51 52 50
14 23 35 44 48 49 45 41 37 40 42 43 40 41 28 25 32 38 58 74 79 83 87 89 88 83 77 75 71 66 59 54 65
24 24 32 43 47 51 51 49 48 49 56 58 61 59 59 66 57 61 72 69 84 87 84 85 86 86 85 82 78 73 69 68 68
36 20 21 29 41 48 54 59 58 60 57 58 58 58 65 68 74 79 86 90 93 95 92 93 87 85 86 86 82 76 69 60 57
43 28 30 30 35 43 51 56 61 59 59 61 64 62 64 71 71 79 80 76 75 79 82 82 74 71 68 65 60 55 53 54 51
74 52 53 41 46 53 50 37 44 49 55 61 62 64 62 64 67 76 84 85 86 86 79 61 48 47 46 45 40 34 32 32 31
72 74 68 55 62 66 60 74 74 66 57 57 59 59 64 69 77 74 81 84 89 81 76 67 52 46 47 45 40 33 29 29 30
54 60 72 80 89 80 93 94 95 74 61 59 62 55 68 75 79 76 75 74 67 68 67 73 72 68 62 57 49 39 36 40 47
42 54 60 67 84 94 96 96 97 94 69 67 59 42 63 72 75 66 61 59 69 76 73 68 64 63 64 59 48 40 43 51 58

GFSFLT1_500_rhum_060.txt.gz
RH
16 15 11 8 6 6 7 8 9 10 11 13 14 16 16 16 17 18 20 21 22 22 20 21 24 27 32 36 36 36 36 36 37
13 16 17 15 12 10 9 8 8 10 12 13 12 14 16 16 17 18 20 21 24 28 31 34 35 36 36 36 36 38 40 38 36
14 15 17 17 16 14 11 10 10 11 14 14 14 17 20 21 20 22 24 28 34 33 35 37 39 39 35 32 30 26 35 44 45
15 18 19 19 18 16 15 15 15 17 21 21 24 26 29 32 33 34 37 38 38 39 40 44 44 40 39 35 26 22 21 30 40
16 16 16 18 19 18 18 17 19 21 23 26 30 32 34 37 40 41 42 44 46 47 50 50 49 46 45 43 35 34 34 34 33
16 19 18 18 18 19 21 22 22 22 23 24 25 28 38 42 46 46 48 52 54 54 55 56 57 53 52 49 45 45 46 39 40
18 20 22 22 21 20 20 21 23 24 26 26 25 26 30 40 49 53 53 56 56 57 67 69 67 61 55 52 48 46 45 41 43
18 19 21 22 22 23 23 24 25 28 28 28 28 27 27 28 31 34 47 66 75 72 71 70 69 63 56 54 56 48 44 46 42
13 14 16 16 22 25 26 26 29 30 30 30 30 30 30 29 27 29 34 38 45 62 65 68 69 63 61 60 62 54 37 38 46
8 11 17 20 22 26 28 28 26 30 32 32 32 32 31 26 23 23 31 51 49 51 57 58 58 57 58 69 70 60 54 36 41
9 10 15 20 21 22 26 32 33 32 32 34 34 33 32 28 24 20 25 64 53 42 57 64 66 66 67 77 79 70 65 57 50
12 11 10 12 18 20 24 33 38 42 40 37 36 39 39 37 35 36 34 29 30 30 44 63 70 76 85 85 84 81 75 72 64
13 10 10 16 20 22 29 33 40 48 47 45 44 46 50 57 57 54 53 56 60 60 55 59 73 78 84 85 83 82 83 79 76
11 13 17 23 22 20 24 30 42 48 48 45 47 55 57 56 58 60 63 64 63 72 77 81 78 77 80 87 88 84 80 81 80
27 26 36 42 34 18 19 23 33 34 36 41 47 53 56 59 60 62 62 65 63 64 72 72 71 67 69 72 71 66 65 67 70
60 57 57 52 54 34 33 32 32 37 38 36 35 43 49 51 53 53 56 61 68 68 74 78 83 84 78 67 47 42 42 41 38
82 86 84 92 77 69 64 47 51 52 45 37 42 54 52 51 51 54 61 71 71 71 72 72 76 72 68 67 65 61 58 54 50
80 90 90 86 81 80 78 82 84 93 91 90 81 59 58 54 56 47 61 70 74 69 60 56 55 59 62 62 61 61 62 60 58
66 80 80 79 69 66 66 73 77 89 95 96 96 88 66 62 62 41 54 62 71 68 63 58 58 61 68 64 58 55 52 54 58
48 39 52 57 60 64 66 72 83 81 88 96 97 97 89 69 51 40 50 57 44 42 53 58 59 64 68 60 55 53 54 54 54

GFSFLT1_500_rhum_063.txt.gz
RH
12 13 14 14 14 12 10 8 8 8 8 9 10 11 11 13 15 16 16 18 18 19 20 20 20 24 27 29 28 29 30 31 36
11 11 12 13 14 15 14 13 11 10 9 9 10 10 12 14 16 17 18 19 20 22 25 26 29 31 31 33 33 30 30 28 32
10 11 11 13 14 15 15 14 14 13 13 13 14 15 15 18 21 24 26 27 28 32 36 37 37 39 42 39 37 35 28 22 20
10 11 12 13 15 17 18 17 16 16 16 16 17 17 18 23 26 30 34 36 38 38 41 44 45 48 47 45 44 44 35 29 27
11 10 11 12 13 14 16 17 18 18 20 20 21 22 22 25 30 32 38 38 40 44 50 52 53 55 55 58 54 50 44 43 41
11 11 11 12 12 13 14 16 17 18 20 22 23 24 24 24 26 29 36 39 39 45 51 54 55 58 66 66 59 54 50 46 44
10 10 11 11 11 13 15 17 19 20 21 21 22 23 23 23 24 24 27 31 30 35 45 54 59 68 68 67 62 56 52 50 46
10 9 10 12 12 13 15 16 19 20 21 22 22 24 24 24 25 26 27 27 27 27 31 39 45 56 66 70 64 58 53 54 49
9 9 9 8 9 13 18 19 20 21 22 22 24 26 26 27 27 26 26 24 24 28 37 44 43 48 55 58 57 57 56 62 56
7 7 7 7 9 15 17 16 16 17 20 23 26 28 28 29 30 30 29 25 23 23 38 49 36 47 54 56 58 57 64 71 66
7 7 9 7 8 10 9 10 11 16 24 29 32 33 33 32 32 34 34 33 34 36 36 34 32 35 54 64 67 66 69 75 76
7 9 11 11 8 7 10 15 16 18 23 24 26 30 34 36 39 38 41 44 46 48 49 52 56 59 55 62 75 80 82 82 83
16 15 14 11 8 9 18 20 17 18 21 21 26 29 27 29 36 45 51 51 52 52 50 52 53 66 70 76 76 78 78 76 76
34 30 23 11 10 16 26 26 17 14 19 21 24 28 25 27 29 35 41 44 49 56 58 59 62 65 73 73 73 68 69 78 79
69 51 34 29 23 31 41 42 37 26 28 26 30 33 30 25 28 36 40 40 41 42 48 54 61 65 66 66 69 75 77 70 56
80 80 64 58 56 57 57 60 58 49 55 47 46 50 48 41 38 47 42 42 42 46 51 56 62 63 62 64 69 64 62 66 65
77 88 88 82 76 76 80 88 85 76 76 71 76 80 85 94 76 64 48 45 43 34 47 50 54 60 59 55 50 48 49 52 53
70 70 85 82 89 86 84 88 94 78 77 73 68 77 90 94 98 87 59 55 55 37 43 50 50 49 51 50 53 56 56 57 52
33 51 51 64 74 83 89 80 74 75 80 80 74 85 90 84 98 98 93 87 74 61 42 49 48 37 41 48 53 54 58 61 57
17 19 37 45 56 79 72 65 60 67 69 68 75 72 77 81 81 100 99 96 92 82 57 40 49 43 42 53 49 49 59 67 66

GFSFLT1_500_rhum_066.txt.gz
RH
11 12 11 11 12 13 13 13 12 11 10 8 8 8 9 10 10 11 13 14 16 17 18 18 20 25 28 31 30 30 31 29 27
8 9 9 9 10 11 12 13 14 13 13 12 11 11 12 12 13 15 15 16 18 20 22 24 29 28 32 35 37 37 34 32 28
6 6 7 8 8 10 12 15 16 15 15 16 16 16 15 16 17 19 19 20 22 28 32 33 36 37 39 43 46 45 44 42 32
6 7 7 8 9 10 12 14 16 16 16 15 16 18 19 20 21 22 24 25 28 32 38 39 42 45 49 51 52 53 51 50 44
8 8 8 8 8 9 10 10 12 14 14 14 15 17 19 20 22 23 24 25 29 35 40 42 46 49 52 54 56 63 61 55 52
8 10 9 7 7 8 9 9 11 12 14 16 16 17 19 21 22 23 23 23 25 28 31 36 38 44 48 54 58 65 65 60 55
9 7 6 7 7 8 9 11 12 13 15 16 18 19 21 22 23 24 24 24 23 24 26 26 28 30 32 39 48 52 64 63 56
8 10 8 7 7 8 9 10 10 12 12 14 16 17 19 20 22 24 25 26 25 26 24 23 26 31 36 35 39 44 54 56 57
8 9 8 7 6 6 8 9 11 12 11 12 12 15 17 19 20 24 25 26 26 26 25 24 23 29 38 28 32 42 48 51 53
9 8 7 6 6 6 7 9 12 10 10 11 13 16 16 18 21 25 27 30 32 32 32 34 36 36 37 36 33 38 48 53 56
8 9 8 7 7 9 8 8 7 9 12 12 12 14 15 15 16 21 28 31 32 36 34 34 37 42 44 47 49 52 49 52 61
8 10 8 7 8 10 11 8 7 14 14 12 14 16 16 16 17 18 20 25 30 36 41 45 46 45 44 42 47 57 68 71 70
8 8 15 12 12 13 12 7 8 20 18 13 14 18 20 21 23 21 17 18 25 31 35 37 43 48 49 48 50 59 72 72 69
26 19 21 24 24 23 14 9 12 26 30 20 19 24 24 27 32 34 34 25 28 34 35 34 36 40 41 45 54 59 59 61 67
34 34 38 48 41 36 32 23 22 36 44 48 42 47 45 42 52 61 73 67 46 37 34 36 36 41 44 47 52 55 54 56 65
57 64 69 77 83 83 64 52 50 58 63 65 69 68 61 62 68 76 79 84 76 64 43 41 34 32 38 37 38 46 47 47 47
56 65 71 72 84 85 84 82 76 74 82 88 86 71 65 68 66 72 77 75 89 90 66 50 50 36 32 35 36 35 29 32 42
48 56 67 66 77 79 87 92 85 82 86 88 85 77 67 78 80 75 80 74 77 96 95 71 81 80 50 40 34 37 32 27 29
22 25 32 35 50 67 80 90 92 84 89 91 83 64 64 70 72 74 71 70 72 68 90 99 95 86 71 59 49 38 41 36 34
14 21 36 27 33 31 39 58 64 70 78 82 73 68 63 69 74 66 71 73 73 73 70 100 97 92 89 81 65 45 54 62 40

GFSFLT1_500_rhum_069.txt.gz
RH
10 9 10 10 10 11 11 12 12 13 13 12 11 10 10 10 10 11 10 12 13 14 15 15 18 21 26 26 27 30 32 35 33
5 5 6 5 6 6 7 9 11 13 13 13 13 13 14 15 15 15 15 17 18 18 19 22 24 27 31 33 33 34 39 41 39
4 4 4 4 5 5 6 6 9 12 15 16 16 16 16 17 17 20 22 22 22 22 23 26 29 33 38 39 39 42 44 46 48
4 4 4 5 5 5 5 6 7 8 11 13 14 13 14 16 17 20 20 20 21 23 24 28 32 36 42 46 44 45 49 52 58
4 5 6 5 6 7 6 5 5 6 7 8 9 10 12 13 14 15 15 18 22 23 24 25 27 31 33 37 40 42 44 52 62
10 9 7 8 7 5 4 5 5 6 6 8 9 11 11 11 12 14 17 19 22 22 23 23 24 24 24 26 28 28 33 38 48
15 12 8 5 6 6 6 5 5 6 7 7 8 10 10 12 14 16 17 17 20 21 21 20 22 22 22 22 25 31 32 34 38
17 14 9 6 8 6 6 6 5 5 6 8 9 10 12 13 14 15 17 16 20 20 20 22 22 23 23 22 25 28 23 26 34
10 8 5 7 7 6 5 5 5 6 8 9 8 9 10 12 13 16 17 16 17 17 21 24 27 26 28 31 35 37 39 38 34
14 7 6 7 7 7 6 6 6 6 8 7 8 10 11 12 12 16 17 17 15 17 22 25 29 29 28 26 33 35 37 39 47
15 12 6 8 9 9 7 7 9 7 8 7 12 11 12 12 13 13 14 15 15 16 17 22 26 30 33 35 36 36 34 35 41
30 18 14 8 9 10 8 8 10 11 7 8 16 13 12 15 17 17 21 22 20 18 19 23 26 27 25 28 31 32 34 36 44
43 47 26 23 9 11 16 14 14 13 8 7 20 20 13 15 20 22 26 32 39 47 35 30 31 27 25 31 35 34 32 33 36
35 35 40 39 30 19 20 24 26 25 13 9 20 32 30 27 31 34 38 51 64 76 78 52 41 32 32 31 30 33 33 37 41
24 46 56 51 44 38 34 38 44 37 34 26 25 38 44 49 51 58 53 62 64 65 78 72 72 53 40 36 30 28 29 30 30
14 26 42 41 52 61 64 74 82 84 71 58 52 58 65 74 75 68 66 63 64 66 65 61 73 80 63 47 45 37 32 30 33
11 12 21 27 38 53 71 86 82 90 85 83 78 74 78 92 95 83 69 75 77 67 63 59 58 65 83 79 62 73 88 48 40
11 10 10 12 22 40 56 77 88 89 85 94 93 91 92 99 97 88 80 74 79 74 63 59 58 64 60 80 100 98 90 78 65
29 38 19 20 22 24 34 39 58 65 71 84 90 92 91 88 89 91 67 70 72 78 70 64 59 65 59 73 77 93 93 92 85
17 37 46 40 36 42 50 60 58 63 59 57 63 93 91 82 79 67 72 72 86 79 79 78 81 76 79 76 72 80 99 100 95

GFSFLT1_500_rhum_072.txt.gz
RH
7 5 4 4 5 5 6 6 7 9 10 10 12 13 12 12 13 14 15 15 15 17 18 18 20 21 24 26 28 30 32 32 34
4 3 3 2 3 3 4 4 4 4 5 8 10 12 14 16 17 17 16 17 19 21 20 20 22 25 26 29 32 34 36 38 40
2 2 2 3 3 3 3 4 4 4 5 7 10 14 14 13 13 15 16 17 17 19 19 20 22 24 26 30 32 33 33 35 34
3 3 3 3 4 4 4 5 6 5 5 6 7 9 9 10 10 10 11 12 14 15 18 21 22 23 22 22 23 25 26 27 29
3 3 5 8 7 6 5 4 4 4 4 4 5 6 6 7 9 9 10 11 11 12 16 18 19 20 22 22 22 22 24 25 25
4 5 12 12 10 7 5 4 5 5 4 4 4 5 6 6 8 8 8 10 11 14 15 17 19 18 19 20 20 20 20 22 24
4 7 12 14 11 7 5 6 5 5 4 4 5 5 6 7 8 7 7 9 12 13 15 17 16 17 18 19 21 22 20 23 22
4 6 8 9 6 5 5 5 5 5 4 4 5 7 8 6 8 8 9 10 12 12 14 14 13 16 18 22 25 26 26 27 29
6 8 12 11 6 5 5 5 5 6 5 5 6 8 7 7 10 10 12 11 11 10 11 13 15 18 19 21 24 22 22 25 30
11 10 10 14 10 6 6 7 8 6 5 6 6 7 7 9 10 13 12 11 11 10 12 14 15 18 21 22 25 26 26 25 25
26 19 30 24 18 13 8 8 8 7 7 8 9 7 9 13 10 15 15 14 16 19 20 20 19 20 23 24 21 19 22 23 24
11 10 18 39 45 24 21 12 8 13 10 10 11 8 10 18 14 13 18 19 23 27 33 52 53 38 30 26 20 22 26 26 25
20 16 14 19 31 36 40 32 25 15 18 20 18 11 8 17 25 17 18 23 27 34 43 64 61 61 44 35 27 27 25 21 20
13 9 8 10 16 41 46 47 44 35 29 31 32 32 21 17 25 38 38 42 47 48 61 63 59 60 64 62 51 39 35 33 29
17 15 16 11 10 18 36 46 50 53 46 49 62 64 48 38 36 45 52 54 61 68 65 58 58 61 54 52 58 64 56 46 44
18 15 10 9 9 11 24 26 32 48 62 70 80 86 86 80 74 74 74 83 78 68 75 72 66 62 59 54 55 61 78 80 69
22 23 26 14 13 10 15 15 32 45 56 60 84 83 87 92 96 92 92 88 91 90 88 78 75 71 59 59 59 59 63 70 80
24 27 37 38 38 27 30 46 59 61 64 66 70 78 87 95 99 96 97 97 97 100 93 81 68 73 77 72 68 61 61 67 70
14 32 31 33 37 27 46 50 58 62 69 84 86 77 71 68 75 82 88 97 92 94 100 90 85 82 74 68 77 82 86 76 80
12 13 15 15 33 32 32 39 39 55 71 76 85 88 94 95 90 86 90 95 98 93 100 100 96 96 91 84 87 95 92 85 90

GFSFLT1_500_rhum_075.txt.gz
RH
5 4 3 3 2 2 2 2 2 2 3 4 5 8 11 12 13 14 16 17 17 16 17 18 18 17 20 22 24 26 28 28 30
3 2 2 2 2 2 2 3 3 3 3 4 6 8 10 12 14 16 15 15 16 16 14 14 13 15 18 19 20 22 24 25 25
2 2 2 2 2 3 4 4 4 5 5 5 5 6 7 10 12 12 11 9 9 11 11 11 12 12 13 16 18 18 19 21 21
2 2 3 3 4 7 7 6 5 4 4 4 4 4 6 6 6 7 7 7 7 8 8 8 9 10 12 14 15 17 20 20 20
2 3 3 4 8 9 9 7 5 4 5 5 4 4 5 5 6 6 6 7 7 7 7 9 10 12 13 14 14 17 18 19 18
3 3 3 4 6 8 9 6 4 4 5 4 4 4 4 5 5 6 6 6 6 7 8 9 10 11 10 12 15 15 18 19 18
3 4 4 5 7 8 6 4 4 4 4 4 4 4 4 6 7 7 6 7 8 8 9 9 9 9 10 12 15 17 21 20 18
6 8 5 7 11 11 8 5 4 4 4 5 5 4 5 7 8 6 7 8 9 9 10 8 9 10 11 14 15 16 18 16 15
7 7 9 10 10 11 10 8 5 5 7 7 5 5 6 8 6 7 9 9 10 11 10 9 12 12 14 16 17 18 18 16 17
7 10 20 22 22 28 17 13 11 8 7 8 6 6 8 8 7 10 10 10 12 13 13 14 17 19 21 20 20 20 17 15 18
8 9 9 11 10 16 39 37 23 19 13 7 10 9 9 11 7 15 14 12 15 17 17 22 26 40 47 42 31 25 18 18 22
14 9 9 16 16 13 16 27 35 38 28 22 14 16 17 15 10 11 21 16 13 18 20 23 30 43 50 46 47 36 27 22 23
9 8 8 12 12 9 8 11 25 39 38 39 34 27 26 26 24 12 13 28 27 22 25 31 40 56 56 50 50 51 50 40 33
12 15 13 14 14 14 14 12 10 16 34 46 50 47 39 39 39 35 32 28 40 43 47 49 54 60 59 57 58 48 50 50 52
20 22 19 15 16 16 11 9 9 10 18 27 33 35 55 61 69 79 78 62 54 56 60 66 73 68 65 62 62 62 56 51 46
24 24 26 24 23 27 28 23 16 14 15 14 20 31 39 59 75 88 88 98 97 94 89 91 90 85 81 74 73 67 63 57 50
19 22 19 22 25 34 32 40 41 46 63 70 71 61 63 73 74 79 92 95 90 100 98 97 96 95 97 95 90 83 78 76 77
35 20 20 22 26 30 36 41 48 67 76 75 84 78 79 85 96 93 85 86 82 86 92 97 98 97 98 97 89 87 88 95 76
14 20 21 20 15 15 27 35 51 50 59 63 74 74 75 73 78 100 98 97 96 92 78 66 79 99 97 97 98 95 94 94 91
10 9 8 8 9 12 14 19 21 26 34 37 43 57 77 84 89 98 100 98 97 98 98 96 96 96 99 98 94 97 98 88 95

GFSFLT1_500_rhum_078.txt.gz
RH
5 4 3 2 2 2 2 2 2 3 3 3 3 4 6 6 9 12 14 16 16 15 15 15 11 9 11 14 15 17 18 19 22
3 2 2 2 2 2 2 3 4 4 4 4 4 4 5 6 8 11 12 11 10 9 10 7 8 9 9 10 11 12 13 14 15
2 2 2 2 2 3 4 6 6 5 5 4 4 4 4 4 6 5 6 6 6 6 6 7 7 7 8 8 9 10 11 12 14
2 2 2 2 3 4 5 6 6 6 5 4 5 4 4 4 4 5 5 5 5 6 6 6 6 7 7 8 8 9 10 12 14
2 2 3 3 3 4 4 5 6 5 4 4 5 5 4 4 4 4 4 5 6 6 6 7 7 7 7 6 7 8 10 11 14
2 3 3 3 3 3 4 6 5 4 4 4 4 4 4 3 4 4 6 7 6 6 7 7 8 8 7 7 8 10 12 13 14
3 3 4 5 4 4 6 7 7 5 4 4 4 5 5 4 4 5 6 6 6 7 8 8 9 8 8 9 11 12 13 14 15
5 4 8 6 5 8 10 10 9 8 6 5 5 6 6 4 4 5 7 6 7 8 8 9 10 8 11 12 13 15 16 16 16
5 5 6 9 17 17 19 22 21 16 13 11 7 6 6 5 6 6 6 6 9 9 10 11 11 10 13 15 16 19 19 18 17
8 8 7 7 7 11 10 9 22 32 31 25 20 12 7 9 8 9 8 7 11 11 12 14 14 17 20 23 35 38 32 24 19
14 14 15 13 8 9 14 14 13 15 22 26 27 26 21 15 14 15 12 8 12 16 14 16 18 21 26 31 46 44 41 38 28
19 20 15 9 7 7 10 10 8 7 8 10 21 28 32 34 26 22 23 15 8 18 22 15 19 23 28 34 49 56 47 47 42
19 14 13 10 9 11 12 13 13 13 12 11 10 15 27 43 47 41 34 35 32 15 18 32 30 27 32 40 54 65 56 53 50
13 20 22 19 18 19 18 16 17 15 11 9 10 11 18 29 39 43 54 54 61 57 43 31 42 50 49 53 56 63 62 61 62
15 27 21 19 22 23 25 22 24 27 27 28 19 14 14 17 24 36 46 65 84 95 92 87 61 52 63 68 71 67 61 59 63
20 20 23 22 20 21 17 19 29 38 36 37 37 38 53 64 81 73 64 65 68 84 99 99 100 98 97 95 96 94 82 72 76
16 16 37 41 41 21 21 18 18 24 34 31 32 46 63 79 76 84 85 87 86 83 85 90 99 97 97 97 97 97 97 97 96
38 35 40 30 22 19 26 22 19 11 15 45 60 56 49 49 64 74 74 86 87 94 100 98 90 83 75 80 93 97 97 97 97
12 16 19 16 17 12 10 10 10 21 29 28 33 25 22 28 30 60 80 85 92 97 100 99 98 97 98 97 91 86 93 97 92
11 10 9 9 10 9 8 8 17 16 19 22 24 34 36 37 43 43 47 65 89 95 94 98 99 99 96 97 98 97 98 98 98

GFSFLT1_500_rhum_081.txt.gz
RH
8 4 3 2 2 2 2 2 2 3 4 4 4 4 4 3 3 5 6 8 10 10 10 8 9 7 8 7 8 9 10 11 12
4 3 2 2 2 2 2 2 3 4 5 5 4 4 3 3 4 4 4 4 5 6 6 5 6 6 6 7 7 7 8 8 9
4 2 2 2 2 2 2 3 4 5 5 5 4 3 3 4 3 3 4 4 4 4 5 5 5 5 6 6 7 6 7 8 8
4 2 2 2 2 2 3 4 4 5 6 4 4 3 3 3 3 3 4 4 4 4 5 5 5 6 7 7 7 6 7 9 9
3 2 2 2 2 3 3 3 3 4 4 4 3 3 3 3 3 3 3 3 4 5 5 5 6 7 7 8 7 8 9 11 12
3 2 2 2 3 4 3 3 4 5 5 5 4 4 4 4 4 4 3 4 4 6 5 6 7 7 8 8 8 9 11 12 13
3 4 4 4 4 5 4 6 9 10 10 8 7 5 5 5 5 4 4 4 5 6 6 7 8 8 9 9 9 11 13 14 15
5 6 4 4 5 5 9 11 11 10 12 16 15 13 10 8 6 5 5 6 6 6 6 8 9 10 11 10 12 13 14 17 19
6 6 6 6 6 6 7 9 8 8 10 16 21 23 23 21 15 10 9 8 8 8 7 10 10 11 13 12 13 17 19 24 27
7 8 9 9 11 13 12 9 9 11 12 12 11 12 15 21 26 25 21 16 14 13 9 13 14 13 16 16 19 22 29 42 41
16 13 12 14 16 13 8 6 6 8 9 7 7 9 9 11 20 32 35 33 26 22 19 10 17 19 15 18 21 26 30 45 48
22 17 13 14 13 11 11 11 14 15 16 15 14 11 10 11 13 18 31 45 48 40 32 31 16 15 26 21 21 25 31 38 55
18 14 18 13 11 20 19 19 19 18 16 17 18 17 17 14 12 13 18 29 45 49 51 43 42 39 27 28 37 32 33 41 54
14 20 21 18 21 23 20 21 23 23 21 21 25 29 29 33 37 40 36 32 28 27 31 51 64 73 81 72 51 50 53 52 55
19 18 20 14 33 23 22 26 23 18 17 17 30 33 30 36 37 48 74 78 75 80 82 66 56 64 86 96 100 95 85 74 75
32 34 20 21 24 17 23 36 37 22 22 18 17 15 17 28 46 64 62 61 74 85 99 100 98 91 78 83 97 96 98 97 97
31 42 55 33 24 39 46 33 24 19 22 14 11 11 25 49 48 48 32 33 46 68 89 93 95 99 97 96 91 84 84 96 97
58 50 33 40 34 21 21 19 17 13 9 8 14 26 20 21 26 23 28 32 32 34 42 60 82 82 80 96 98 99 97 94 94
50 51 47 18 15 18 11 12 11 9 8 11 24 26 20 22 18 23 31 32 31 36 36 39 41 61 69 76 85 98 96 97 98
18 16 15 13 12 12 11 11 8 8 9 10 34 9 11 16 12 6 8 7 8 10 21 15 19 32 24 33 85 81 98 98 100

GFSFLT1_500_rhum_084.txt.gz
RH
10 6 4 2 2 2 2 2 2 2 3 4 4 4 3 3 3 3 3 3 3 3 3 4 4 4 4 4 5 6 6 6 7
5 4 3 2 2 2 2 2 2 2 3 3 4 4 3 3 3 3 2 2 2 3 3 3 4 4 4 5 6 6 6 6 7
5 4 3 2 2 2 2 2 2 2 3 3 4 3 3 3 3 3 3 2 2 3 3 4 4 4 4 5 6 6 5 6 8
5 4 3 2 2 2 2 2 2 3 3 4 4 3 3 3 3 3 3 3 3 3 4 4 5 4 5 6 6 7 6 7 9
5 4 3 2 2 2 3 3 3 4 4 5 5 5 5 4 4 4 4 4 3 3 4 5 5 5 6 6 7 8 6 8 11
5 4 3 3 4 4 4 4 4 8 10 9 9 9 8 7 7 6 5 5 4 4 5 6 6 6 7 7 7 8 7 9 12
5 4 4 5 5 4 4 4 6 8 9 8 8 10 12 14 16 16 13 11 9 7 6 6 6 6 8 8 9 9 8 11 14
6 5 5 6 5 6 6 7 8 10 8 7 8 9 11 13 16 18 20 21 19 16 13 10 8 8 10 10 10 11 10 12 15
7 6 6 7 7 8 9 12 13 10 6 7 9 8 6 6 7 7 10 16 23 26 27 23 18 12 10 13 13 14 14 14 18
8 8 9 11 10 12 14 13 9 6 6 7 9 11 12 12 11 10 9 10 12 18 28 38 36 26 18 12 16 16 17 18 22
8 9 12 16 14 12 12 11 12 13 15 16 15 14 16 15 14 13 13 12 10 11 15 27 37 44 39 32 18 15 20 19 22
11 11 13 17 16 14 12 13 20 19 18 19 19 20 20 21 26 28 30 32 30 29 28 22 18 20 29 45 44 39 26 27 28
11 11 14 15 12 17 16 18 24 19 23 27 21 16 17 18 27 32 30 32 36 35 53 60 63 67 60 45 51 66 73 75 55
12 12 13 15 13 15 15 26 24 21 19 19 21 17 17 18 18 17 20 24 31 48 55 52 57 69 76 84 85 80 72 73 90
14 12 13 15 18 24 18 20 19 22 34 37 29 19 22 21 18 13 19 37 40 54 46 34 33 41 58 74 79 77 82 87 83
19 16 18 24 29 25 30 24 23 39 43 30 24 16 11 10 13 20 25 20 23 21 22 29 34 34 37 45 51 70 69 68 94
37 55 61 57 47 63 43 32 38 30 22 18 14 11 9 9 15 24 25 37 30 23 26 27 23 26 24 21 25 57 54 60 89
70 70 90 84 60 41 51 70 34 16 14 10 10 9 7 8 20 19 21 16 17 12 8 7 8 9 9 9 12 15 16 18 19
59 54 49 41 46 49 48 30 23 12 11 11 9 8 8 9 8 7 6 5 7 6 6 8 8 8 10 9 8 9 10 11 22
60 49 42 43 47 32 18 15 14 12 12 10 8 9 10 9 6 3 3 4 6 6 7 6 8 10 10 8 10 9 11 14 21

GFSFLT1_500_rhum_087.txt.gz
RH
10 7 4 3 2 2 1 2 2 2 2 3 2 3 3 3 3 3 2 2 2 2 2 2 2 3 3 4 4 4 6 6 5
8 4 4 3 2 2 2 2 2 2 2 2 2 3 3 3 3 2 2 3 2 2 2 2 3 3 4 4 4 5 6 6 6
7 4 4 3 2 2 2 2 2 2 2 3 3 4 4 4 3 3 3 4 3 3 3 2 3 4 4 4 5 5 6 6 5
6 4 4 3 2 2 2 2 3 3 3 4 6 6 6 6 6 5 5 5 5 4 4 4 3 4 4 4 5 6 6 7 6
6 5 4 3 3 3 4 4 4 3 4 6 7 6 7 7 8 10 11 11 11 10 9 8 6 5 5 5 6 6 6 7 6
7 5 4 4 4 5 4 4 4 6 7 8 8 7 7 8 9 10 10 11 11 12 13 14 15 12 10 7 6 8 8 8 8
7 6 5 5 5 5 6 6 7 8 11 9 6 4 5 6 6 6 6 6 8 8 10 16 18 19 20 17 12 9 9 10 10
7 6 6 6 6 6 7 8 11 12 10 6 4 4 6 7 9 10 10 9 8 8 8 10 10 15 24 25 26 20 13 12 13
8 8 7 7 7 9 10 11 11 10 8 8 9 11 13 13 13 13 12 12 14 16 15 15 14 13 13 17 28 34 26 14 16
9 9 8 8 10 13 13 12 10 10 11 14 16 16 16 16 17 16 16 18 23 26 28 28 27 26 28 22 17 24 37 37 25
13 11 9 9 12 14 15 12 13 11 17 18 18 18 20 18 15 15 14 17 23 20 18 20 22 28 41 46 47 51 44 38 48
13 11 10 10 12 13 12 12 15 16 16 23 19 22 20 17 16 15 15 15 14 12 12 19 31 40 42 40 39 51 69 77 75
14 12 11 11 11 12 12 13 16 14 21 19 18 17 25 29 20 18 19 15 12 12 17 19 24 31 19 18 20 29 36 56 77
17 14 13 13 12 12 14 13 19 17 19 17 17 34 42 31 21 15 10 9 10 19 19 19 21 18 20 26 26 26 36 44 50
17 16 17 17 14 13 14 23 26 25 29 24 36 37 28 20 15 12 9 9 15 24 24 28 22 16 15 8 8 10 13 17 47
25 28 31 25 20 26 34 32 28 50 37 33 41 21 15 11 10 9 8 11 17 18 20 11 8 6 4 5 5 6 6 6 6
74 77 79 80 69 66 73 74 63 53 40 53 33 20 13 10 10 9 10 14 19 7 6 5 5 4 4 5 6 6 8 7 8
83 84 81 80 80 78 96 79 42 45 46 41 29 14 12 10 9 10 13 12 9 6 4 5 5 6 7 7 8 9 12 10 10
61 53 57 64 69 66 65 64 49 44 40 20 15 14 11 10 9 9 11 10 6 5 4 5 7 11 12 14 14 15 18 13 16
38 52 58 59 61 69 61 46 37 30 24 20 16 13 11 10 12 9 9 8 5 4 6 6 10 10 12 17 19 22 20 18 22

GFSFLT1_500_rhum_090.txt.gz
RH
12 8 5 3 2 2 1 2 2 2 2 2 2 2 3 3 3 3 3 3 3 3 3 3 2 2 2 3 3 3 4 4 5
10 6 4 3 2 2 2 2 2 2 2 2 2 3 4 4 4 4 4 5 4 4 4 4 4 4 3 3 3 4 5 5 6
10 6 4 4 3 2 2 2 3 3 3 3 4 6 6 6 6 6 6 7 7 7 8 8 8 8 7 6 4 4 5 6 6
10 6 5 4 3 3 3 4 4 3 4 6 6 7 7 7 6 5 5 5 6 7 8 9 10 11 12 12 10 7 6 6 7
10 6 5 4 3 4 5 4 5 6 7 8 9 8 6 4 4 4 4 5 6 7 8 8 8 8 10 12 16 16 13 9 8
11 7 5 4 4 5 5 6 7 8 9 10 8 5 4 4 6 7 8 9 9 9 9 9 11 12 12 13 16 18 21 18 14
13 8 6 6 5 6 7 8 9 11 11 9 7 7 8 10 12 12 12 12 11 11 14 16 17 18 18 18 17 17 19 25 25
13 10 7 7 7 7 8 10 11 11 10 9 10 12 14 14 14 15 15 14 12 14 18 21 20 18 16 18 21 24 20 20 25
12 10 8 8 8 8 10 12 13 12 11 10 12 14 16 16 16 17 14 13 13 12 14 14 11 11 15 21 32 40 40 41 46
15 12 10 10 8 9 12 14 14 12 12 12 15 17 19 18 18 14 15 17 16 15 15 12 11 13 18 25 37 37 32 32 39
18 15 14 12 10 10 11 13 13 11 13 14 14 22 19 19 16 19 24 20 20 17 11 9 11 13 16 22 21 18 19 21 24
20 18 16 13 11 11 11 12 11 11 13 14 18 20 19 16 27 33 30 24 16 10 8 8 15 18 19 19 18 15 15 14 14
23 21 18 15 13 12 12 12 13 12 12 17 18 21 19 29 37 34 23 17 12 9 8 9 16 19 21 15 8 9 4 4 5
30 25 20 17 15 14 14 14 13 13 16 26 25 33 32 38 35 19 14 10 9 9 8 10 13 14 8 4 4 3 4 4 6
34 28 23 20 18 18 19 17 16 21 28 27 40 41 41 57 28 19 14 10 9 9 9 13 9 5 4 4 4 4 5 5 6
36 30 28 25 23 35 32 27 27 53 61 69 68 43 62 49 27 17 12 10 10 9 9 10 6 4 3 4 6 7 9 9 10
41 37 34 34 71 77 78 77 69 69 80 73 45 51 49 32 17 15 12 10 9 10 10 9 4 3 4 5 8 7 11 15 16
74 83 57 66 83 85 77 71 71 77 71 64 49 46 32 20 22 15 12 10 11 12 10 8 4 4 4 7 7 6 11 17 20
96 93 81 81 75 64 52 65 66 63 66 55 43 35 33 39 28 14 11 11 16 12 11 6 5 4 4 8 8 8 16 19 22
96 93 91 79 72 40 54 54 50 53 52 31 35 43 43 31 19 16 10 16 20 11 12 6 5 5 6 7 7 12 18 18 19

GFSFLT1_500_rhum_093.txt.gz
RH
13 11 6 4 3 2 2 2 2 2 2 2 2 3 3 4 5 5 5 5 5 5 6 6 7 7 8 8 7 6 4 4 4
13 10 6 4 3 2 2 2 2 3 3 3 4 6 6 6 6 6 5 4 4 5 6 7 8 8 9 8 9 9 8 8 6
14 10 6 4 3 2 2 3 4 4 3 6 6 7 8 7 6 4 3 4 5 6 7 8 8 8 7 8 10 12 14 13 12
14 9 6 4 4 3 4 4 4 5 7 8 9 9 7 4 4 5 7 8 9 9 9 10 11 12 13 14 15 15 16 16 16
14 10 6 5 4 4 5 5 6 8 9 10 9 8 7 7 10 12 12 12 12 11 10 13 15 16 17 16 15 16 16 17 18
16 12 8 6 5 5 6 7 8 10 12 11 10 10 11 13 13 16 16 15 13 10 12 14 14 16 14 12 13 15 19 23 21
17 12 8 7 6 6 7 8 10 12 12 11 11 12 14 14 18 19 18 14 12 14 15 16 14 13 10 12 14 17 19 29 29
18 16 12 8 7 8 8 9 11 12 13 12 12 13 14 16 20 20 19 15 15 20 21 21 15 11 10 12 12 14 19 21 19
19 17 15 11 9 9 9 10 12 13 13 12 13 14 15 18 20 19 17 22 24 25 24 18 11 9 10 11 13 16 18 16 15
20 18 16 13 11 11 9 10 12 13 13 12 13 14 16 19 19 18 23 32 32 27 22 13 10 10 9 12 15 18 16 12 8
22 20 17 15 14 12 11 11 12 13 13 12 12 13 17 18 20 21 34 35 31 18 15 10 10 10 9 12 15 16 8 5 3
29 24 20 18 16 14 12 12 12 12 12 13 13 15 20 22 26 31 37 37 24 16 12 9 10 9 10 12 13 5 3 2 3
37 29 23 20 17 16 15 14 12 12 13 14 14 21 26 25 36 36 42 36 32 19 12 10 10 9 10 10 5 4 3 3 4
43 34 27 23 20 18 17 15 15 15 15 14 22 32 31 52 43 44 41 35 32 20 12 10 10 9 10 8 4 3 4 5 7
53 43 37 30 24 21 18 18 21 24 24 26 47 58 70 68 40 46 40 28 39 28 14 10 10 11 9 6 3 3 4 5 6
55 50 45 37 28 23 22 28 52 66 70 71 70 75 80 60 48 47 30 35 49 21 12 11 19 13 9 5 3 4 6 8 5
51 54 52 44 32 30 28 61 84 85 79 72 70 75 70 65 49 34 34 45 38 16 12 25 29 14 10 5 4 4 5 8 7
49 61 62 57 60 62 49 82 88 81 60 61 71 67 67 57 35 37 43 35 21 15 11 28 33 16 10 5 4 4 5 6 7
88 91 93 89 84 94 93 93 84 92 54 63 62 51 49 33 35 42 51 35 19 14 14 34 27 16 10 6 5 5 6 7 13
97 96 97 96 95 96 96 95 80 42 52 59 36 36 34 37 45 54 63 52 18 13 16 35 31 12 8 6 5 5 8 12 15

GFSFLT1_500_rhum_096.txt.gz
RH
14 12 9 5 3 2 2 2 2 2 3 3 3 6 6 7 7 6 4 3 4 5 7 8 10 11 11 11 10 12 14 14 14
14 12 9 6 4 3 2 2 3 4 3 5 7 8 8 7 5 4 5 7 8 9 9 10 12 14 15 15 15 15 15 15 15
15 13 9 5 4 3 3 3 4 4 6 8 10 9 8 6 8 11 13 13 13 12 11 10 14 16 16 16 15 14 15 15 16
16 13 8 5 4 3 4 4 5 7 9 11 11 10 11 12 13 16 19 17 15 13 11 14 17 17 15 14 13 15 15 16 18
16 14 10 6 5 4 5 6 7 9 12 12 12 12 15 15 15 21 22 19 15 14 19 22 26 23 16 12 12 14 15 15 16
18 16 12 8 6 5 6 7 8 11 12 13 13 14 16 16 18 22 24 25 23 19 24 26 26 18 12 11 13 13 12 13 16
19 17 13 9 7 6 7 8 9 12 13 14 13 14 16 17 18 22 22 24 29 29 28 26 23 16 10 13 14 12 12 15 16
20 19 17 12 10 8 8 9 10 11 13 14 14 14 16 18 20 21 23 26 32 33 32 25 20 14 11 16 15 10 12 16 14
21 20 20 17 14 11 11 11 11 12 13 14 13 14 15 18 21 20 23 29 34 34 30 19 15 11 10 16 13 9 12 13 8
23 22 21 19 17 14 13 13 12 12 13 13 13 13 14 16 22 22 26 30 36 35 35 29 17 11 11 15 12 10 12 8 3
27 24 22 21 18 15 15 14 12 12 13 13 13 14 14 18 28 25 30 34 37 36 36 34 16 11 10 12 16 11 10 5 3
33 29 26 24 21 19 17 15 13 12 12 13 13 15 15 22 33 30 41 36 37 36 33 47 28 13 11 11 19 10 8 4 3
41 40 37 32 25 21 18 16 14 14 14 14 14 16 20 36 44 55 58 37 39 36 35 49 31 16 11 16 12 9 6 4 3
38 45 46 40 31 24 21 19 17 16 16 18 21 24 41 59 65 68 58 49 44 37 41 52 26 13 13 30 18 9 5 3 4
34 38 52 46 42 35 30 24 20 19 20 30 44 65 70 72 75 70 65 54 41 37 53 49 21 14 31 37 17 9 6 4 4
32 33 44 54 52 46 42 32 26 24 37 74 84 80 76 68 72 68 64 50 36 42 58 57 23 17 31 37 26 10 6 4 4
30 28 37 47 56 50 50 41 33 28 39 81 86 67 62 72 79 64 55 34 36 46 57 62 32 20 41 50 36 12 6 5 5
95 89 69 62 67 66 62 55 43 42 56 88 85 84 62 71 71 45 37 37 47 47 55 69 46 17 40 49 27 11 6 5 5
97 96 97 96 95 96 93 86 88 94 98 92 93 75 77 62 54 40 36 44 51 55 62 65 47 19 48 33 15 10 6 6 6
95 95 95 98 95 97 95 96 96 96 96 95 95 62 48 85 60 37 46 48 56 55 71 62 17 27 37 18 13 9 7 9 10

GFSFLT1_500_rhum_099.txt.gz
RH
14 13 11 7 4 3 2 2 2 3 3 4 7 8 8 6 5 7 11 14 13 13 12 11 14 17 19 20 17 15 16 16 15
15 13 11 7 4 3 2 2 3 4 5 7 10 10 9 9 13 15 19 18 17 16 14 14 17 23 23 20 16 16 18 16 16
15 14 12 8 4 3 3 4 4 6 8 11 11 11 13 14 14 21 23 22 18 17 21 26 27 27 22 17 14 16 18 16 14
16 15 11 7 5 4 4 5 6 8 12 13 13 13 17 16 17 24 26 27 27 24 25 27 26 25 21 14 14 20 19 14 13
17 16 13 8 5 4 5 6 8 10 13 14 13 14 18 18 18 24 25 27 30 29 30 29 27 24 21 13 15 22 18 13 12
18 17 15 10 6 5 6 6 8 10 13 13 14 15 17 20 19 23 25 26 31 30 31 32 29 23 18 14 14 21 20 12 11
19 19 17 12 8 6 6 7 8 11 13 14 15 15 16 19 21 22 23 27 31 33 32 35 35 28 20 13 14 19 21 15 11
21 19 19 16 12 9 8 8 9 10 12 14 15 15 15 17 19 24 22 26 31 34 34 35 38 37 24 14 12 16 22 18 12
23 21 20 20 18 15 12 11 11 12 12 13 14 15 14 15 16 26 26 28 35 35 36 35 36 43 35 18 12 14 26 18 11
26 23 22 21 21 20 17 15 16 14 13 13 14 14 14 15 16 26 32 29 40 36 36 38 36 44 41 25 14 16 29 18 10
30 28 25 23 22 21 19 17 16 15 13 13 13 13 14 16 16 32 41 45 53 39 40 40 36 47 39 22 19 18 30 19 9
33 35 31 28 25 24 22 19 18 15 13 13 14 14 14 17 22 46 54 57 53 50 46 41 39 50 37 19 18 24 32 20 10
29 35 38 37 37 33 27 22 20 17 16 16 16 16 18 24 36 56 60 59 57 57 48 40 40 51 35 20 19 37 32 23 9
27 29 33 39 44 41 38 32 26 22 20 20 19 20 28 39 62 61 59 63 59 54 49 39 38 49 45 22 19 31 40 28 11
27 27 27 30 40 43 43 43 40 34 30 26 24 26 57 72 69 57 58 65 59 48 42 35 44 48 59 30 17 42 51 40 12
50 35 29 26 28 34 44 54 56 48 41 34 27 39 68 79 71 61 63 67 64 40 40 37 40 52 64 54 21 46 45 24 11
95 72 82 78 34 28 35 51 64 65 58 45 34 35 59 78 76 70 63 75 60 49 41 42 43 56 62 55 20 49 42 17 10
97 96 96 96 90 60 74 76 59 62 77 72 59 46 61 81 84 70 84 70 73 49 52 46 56 62 64 29 33 45 26 12 10
92 96 96 96 97 96 96 96 97 96 96 97 96 94 94 93 91 82 54 79 60 63 50 53 62 56 33 24 41 40 15 12 9
95 95 93 93 95 96 95 97 97 98 97 96 98 97 97 96 85 69 83 76 74 61 51 58 53 32 20 20 31 24 17 13 10

GFSFLT1_500_rhum_102.txt.gz
RH
13 14 12 9 5 4 2 2 2 3 3 6 8 10 9 10 14 16 21 21 21 21 23 25 25 25 23 21 19 18 22 21 19
14 14 13 9 6 4 2 2 3 4 6 9 11 11 13 14 15 22 24 23 22 23 24 26 25 24 23 21 18 20 23 22 19
15 15 13 10 6 4 3 3 4 6 9 12 12 15 18 17 18 25 26 26 26 26 27 28 27 26 24 23 18 17 22 23 20
16 16 14 10 6 4 4 4 5 8 12 14 14 16 19 18 19 25 26 27 29 29 29 30 31 30 28 24 20 16 20 23 23
17 17 15 11 8 5 4 5 6 10 13 14 14 15 18 21 21 23 26 28 29 32 30 31 32 32 32 30 25 16 18 22 25
19 18 17 14 10 6 5 6 7 10 13 13 14 14 16 20 22 23 24 27 30 33 33 34 34 33 34 34 29 20 16 20 26
20 19 18 17 13 8 6 6 7 9 12 13 15 15 16 17 19 24 26 24 28 34 34 36 36 34 36 36 34 26 17 20 27
21 21 20 18 16 12 9 7 8 9 10 12 14 15 15 16 17 17 27 27 28 37 38 36 38 40 39 40 35 29 19 22 28
24 22 21 20 19 16 13 11 10 11 11 12 13 14 14 15 15 16 24 34 31 43 43 39 42 41 41 43 35 28 27 22 28
26 26 24 22 21 20 19 17 14 14 15 15 14 14 13 14 15 16 24 41 44 48 46 48 44 43 42 46 41 30 29 25 30
27 30 27 26 24 23 22 21 20 18 18 16 14 14 15 16 17 21 27 48 50 51 52 51 47 45 42 47 47 32 30 30 28
28 33 36 34 31 28 26 25 24 22 21 19 18 17 18 18 20 25 34 50 55 53 54 54 49 44 41 47 50 38 34 31 32
28 30 33 39 41 40 37 36 33 29 24 21 19 20 22 22 24 29 44 57 52 55 57 54 47 42 42 45 51 54 36 29 37
26 25 26 28 31 37 43 47 48 45 38 31 27 27 27 26 27 36 59 66 55 54 60 57 42 40 39 42 57 57 46 29 43
53 35 23 21 24 27 29 35 39 44 51 50 43 37 34 31 30 50 64 69 61 58 60 68 47 48 46 46 57 63 35 25 47
63 60 43 28 26 26 23 22 25 34 48 62 64 58 47 34 31 46 73 70 69 66 71 71 63 55 48 56 65 68 22 39 48
61 65 68 78 76 80 94 96 85 33 31 35 41 60 64 56 44 41 61 73 73 69 77 71 62 56 50 62 59 41 26 44 38
67 56 64 89 97 96 96 97 96 92 93 93 90 80 63 74 77 68 59 70 74 82 72 79 64 52 55 60 40 21 24 35 28
98 87 89 96 96 96 97 97 96 97 97 97 97 97 97 95 97 93 95 87 85 94 86 74 60 51 57 54 34 26 20 28 29
90 97 96 96 94 93 95 96 96 96 97 96 97 94 96 96 95 97 98 87 96 92 82 68 57 52 61 46 35 26 26 30 23

GFSFLT1_500_rhum_105.txt.gz
RH
9 12 13 11 8 4 3 2 2 3 4 6 9 10 11 14 15 18 22 21 22 23 23 23 23 24 24 23 22 20 20 21 23
11 13 13 12 8 5 3 2 3 4 6 9 11 13 16 16 17 21 22 23 24 24 25 26 27 28 27 26 25 23 21 20 22
13 14 14 13 10 5 3 3 4 5 8 12 12 16 18 18 18 24 25 25 26 27 28 28 29 30 29 29 28 26 23 19 20
16 16 16 14 9 5 4 4 4 6 11 14 14 16 19 20 20 23 26 28 28 29 32 32 32 32 31 29 29 28 25 20 20
18 17 16 15 10 6 4 4 5 7 12 14 14 15 17 20 22 22 23 26 30 31 34 34 34 33 33 32 31 30 28 23 21
18 18 18 16 13 9 5 5 6 8 11 13 14 15 15 17 20 23 26 26 26 30 36 37 36 35 36 36 36 33 31 27 24
19 19 20 18 17 12 8 6 6 7 9 12 13 15 16 16 17 17 21 28 31 30 36 41 38 39 37 39 40 37 33 32 29
20 20 21 20 19 17 13 9 7 8 9 10 12 14 15 15 15 16 18 23 30 35 37 42 42 42 40 41 41 41 39 34 32
22 23 22 21 20 19 16 13 10 9 9 10 11 13 13 14 14 16 19 22 29 39 43 44 44 44 43 42 44 44 43 35 36
19 23 25 24 22 21 19 18 16 14 13 13 14 14 14 14 16 18 20 24 30 42 47 48 48 48 46 42 44 42 43 42 39
20 24 28 29 27 25 23 22 22 22 20 19 20 19 18 16 17 18 20 24 31 43 51 53 52 52 47 44 44 43 43 48 45
17 19 24 29 32 33 31 29 28 26 26 26 25 22 19 18 20 23 24 25 32 46 55 54 57 57 53 49 48 43 44 51 51
20 20 22 25 28 32 35 36 36 36 37 37 35 31 26 24 24 26 27 27 33 53 60 55 55 59 64 56 53 44 41 49 54
34 27 23 23 25 25 25 28 32 36 39 41 45 47 44 39 36 33 28 28 40 63 67 62 62 68 71 62 57 47 43 49 54
63 58 50 40 28 22 20 23 26 26 26 29 37 44 48 52 52 54 46 32 43 59 72 70 70 75 76 68 58 50 56 52 43
70 70 71 66 68 66 55 44 45 44 60 82 48 33 40 41 49 54 54 58 46 46 58 72 78 77 75 70 60 54 60 42 26
62 63 66 70 79 83 80 86 92 96 93 97 96 80 47 48 57 55 58 66 65 74 61 66 77 81 82 69 61 56 60 30 19
66 63 70 76 78 71 52 65 90 96 96 91 94 100 93 95 98 98 87 81 95 95 95 84 81 94 84 74 56 61 50 32 26
90 87 89 88 93 95 93 95 95 95 96 96 97 97 98 93 94 88 97 98 95 100 96 94 96 95 81 73 57 63 49 34 26
77 75 94 96 97 95 96 96 96 98 97 94 96 94 94 96 96 96 98 96 95 100 97 93 96 94 78 66 59 69 62 42 41

GFSFLT1_500_rhum_108.txt.gz
RH
7 8 9 11 10 7 5 3 2 2 4 6 9 10 13 15 16 17 20 21 21 22 23 23 24 26 26 25 23 23 22 22 20
9 10 11 12 11 8 6 3 2 4 5 8 11 13 16 17 18 20 22 22 23 24 26 27 28 28 28 28 25 25 24 23 21
11 12 14 14 13 9 4 3 3 4 7 11 12 15 18 19 18 20 24 25 27 27 28 30 29 30 30 30 30 29 26 25 24
12 14 15 15 14 8 5 4 4 5 8 12 14 16 17 19 20 21 23 25 27 29 29 31 32 32 32 34 34 32 31 29 27
14 16 16 16 15 9 6 4 5 5 9 13 14 15 16 18 19 22 24 25 26 27 29 32 34 35 36 35 37 35 34 34 31
17 18 18 18 17 13 9 5 5 6 8 12 14 14 15 15 17 18 19 23 26 29 30 32 36 36 37 38 38 37 38 35 34
18 18 19 19 19 17 13 8 6 6 7 9 12 14 15 16 16 16 17 19 24 27 29 35 37 38 41 40 40 38 37 36 36
19 18 19 20 20 19 17 13 9 7 7 8 10 11 13 14 14 15 16 20 22 26 29 35 40 41 43 43 43 41 40 36 36
20 20 21 21 21 20 19 17 15 12 10 9 10 11 12 14 14 15 16 18 22 26 29 35 40 43 45 48 48 48 45 40 38
15 19 21 24 24 23 22 21 19 18 17 16 15 15 16 16 16 16 17 20 22 24 29 34 43 47 47 49 55 58 57 47 40
16 15 17 20 24 26 25 24 23 23 23 22 21 20 21 21 21 19 20 22 22 24 27 35 39 51 51 52 59 59 60 55 43
20 17 15 16 19 22 26 28 28 28 28 28 28 29 29 30 29 26 25 25 27 25 27 37 48 57 56 57 60 63 66 59 45
21 18 17 16 16 18 22 25 27 29 29 30 32 32 33 34 37 38 37 37 36 35 32 41 63 67 69 67 64 63 66 62 47
26 23 21 20 19 17 19 22 22 21 21 22 23 24 25 29 34 42 44 49 55 50 50 41 47 60 71 75 75 76 72 61 48
36 34 34 39 39 40 44 45 36 28 24 26 30 43 68 76 52 36 39 48 53 55 51 58 57 53 62 72 78 81 85 64 49
61 59 60 56 54 57 60 59 63 69 76 85 83 89 90 91 98 80 42 46 54 61 62 66 67 96 94 82 78 84 89 69 54
60 86 74 59 56 58 59 66 69 67 52 64 90 96 92 92 85 84 74 76 92 94 92 83 92 90 100 95 90 93 89 76 59
88 82 83 74 68 67 76 78 80 71 74 85 95 96 95 93 96 99 97 99 91 96 98 96 94 93 97 99 98 97 94 75 62
94 84 77 79 72 80 87 95 96 97 94 97 97 96 97 97 95 97 95 96 98 97 100 100 98 94 96 95 98 96 88 71 68
60 63 76 77 83 91 97 96 98 95 97 96 96 96 96 97 97 96 96 94 88 95 97 93 98 98 97 96 96 95 94 92 86

GFSFLT1_500_rhum_111.txt.gz
RH
10 8 8 9 10 9 7 5 2 2 3 6 8 11 14 15 16 17 17 17 19 20 20 20 20 22 25 27 27 27 26 24 22
11 9 9 10 11 10 8 5 3 3 4 7 11 13 16 17 17 17 18 20 21 22 22 21 21 24 27 28 29 28 28 28 27
12 10 10 11 12 12 8 5 3 4 5 10 12 14 16 16 18 18 19 21 22 23 22 22 21 24 28 32 32 32 30 29 29
11 12 12 12 13 13 8 5 4 4 6 10 13 15 16 17 18 19 21 23 23 23 24 24 22 26 30 35 35 34 32 32 29
11 12 14 15 14 14 10 6 4 5 6 10 14 14 15 16 17 18 20 20 21 23 23 25 25 28 32 36 36 38 37 35 30
12 14 16 16 16 16 13 9 6 5 6 8 12 14 14 15 16 17 18 19 20 23 24 26 26 29 32 36 39 42 44 44 38
16 15 16 17 17 17 17 14 9 6 6 7 9 11 13 14 15 16 16 17 19 22 24 26 27 28 34 40 41 45 48 51 51
18 17 17 18 19 19 18 18 15 10 8 8 8 9 10 11 13 14 15 16 19 23 25 26 28 31 36 42 44 46 53 51 52
18 19 19 19 20 21 20 20 19 18 16 14 12 11 12 13 15 16 16 17 20 23 26 27 28 32 36 46 48 50 57 56 56
18 18 18 18 20 21 21 21 21 20 20 20 19 18 18 17 18 20 21 21 22 25 27 29 30 32 38 50 54 56 60 62 64
17 15 15 15 16 19 21 22 23 23 23 23 23 23 24 24 25 27 28 28 27 27 30 32 32 34 38 48 57 62 66 68 72
28 22 18 16 16 17 20 24 27 29 31 30 30 30 31 31 31 31 32 34 36 35 36 37 39 40 40 42 48 55 66 71 75
28 26 24 20 18 17 18 21 25 26 25 24 24 24 22 20 20 22 25 29 39 46 48 50 48 44 48 48 47 50 59 64 71
34 27 24 22 19 18 17 16 17 18 18 18 17 16 17 21 32 50 76 86 64 42 48 46 53 52 55 54 54 68 70 65 66
34 33 29 26 24 25 28 33 35 37 45 49 51 55 61 69 75 79 80 83 87 51 44 51 58 63 70 65 71 70 74 70 64
31 35 40 44 48 49 50 49 47 50 61 68 65 57 55 65 76 74 78 80 69 68 60 75 86 77 76 86 76 78 83 83 80
26 41 47 43 48 53 56 49 48 56 64 69 70 75 79 87 86 80 86 96 90 89 81 91 84 91 80 92 92 90 91 91 92
57 76 63 66 78 93 78 70 72 92 88 94 96 98 94 89 96 95 94 88 90 91 90 89 91 91 92 96 90 90 96 91 88
74 93 97 96 97 88 86 94 95 94 97 97 97 95 96 96 96 96 97 90 96 94 94 91 87 94 92 95 96 94 96 98 97
95 97 97 84 87 95 97 96 96 95 93 90 75 41 33 37 49 66 89 92 96 95 92 78 74 91 96 96 93 90 97 93 97

GFSFLT1_500_rhum_114.txt.gz
RH
10 8 8 8 8 8 8 7 5 2 3 5 8 11 14 15 15 15 15 15 16 17 17 16 15 16 22 26 28 27 27 28 27
15 10 8 8 9 9 9 7 5 3 4 6 10 13 16 16 16 17 16 17 19 20 18 17 17 18 21 26 28 29 31 32 30
17 12 10 10 10 10 10 7 5 3 4 8 11 14 16 17 17 17 18 19 20 20 20 20 18 18 21 25 30 33 35 36 36
15 12 11 11 12 11 10 7 5 4 5 8 12 14 16 16 17 18 18 19 19 20 21 22 21 20 22 26 33 36 39 36 38
16 13 12 12 13 12 11 8 6 5 5 7 11 14 15 15 16 16 17 18 19 20 22 23 22 22 23 30 35 36 42 44 41
16 12 12 13 14 14 13 12 8 6 5 6 9 12 14 14 15 16 17 17 18 19 22 24 23 25 27 28 36 40 42 48 46
16 12 13 13 15 16 16 15 13 10 7 6 7 8 10 12 13 13 14 15 15 18 22 24 25 26 29 28 38 44 46 50 52
17 15 14 14 16 17 17 17 17 15 12 10 9 9 9 9 10 12 14 15 16 18 21 25 26 27 29 31 37 47 49 52 55
21 18 17 16 17 18 19 18 18 18 17 16 15 14 13 13 13 14 17 19 20 21 22 25 27 29 29 31 35 43 56 54 59
21 19 18 19 18 18 19 19 19 20 20 19 19 19 19 20 20 21 22 23 25 26 26 27 28 31 31 32 36 41 49 49 54
28 24 21 20 18 18 19 20 20 20 21 21 22 22 23 24 25 26 27 28 29 30 30 32 34 35 37 39 40 42 42 44 49
24 21 20 18 17 17 18 18 19 21 22 23 24 26 27 28 29 29 26 21 18 17 18 25 33 42 44 45 47 47 45 46 59
32 28 25 21 19 18 18 20 19 19 20 22 20 19 18 16 14 13 12 16 23 49 66 70 60 40 40 41 53 55 57 55 66
36 33 30 28 25 22 19 17 16 15 16 15 15 15 15 17 27 36 42 56 69 69 67 73 64 46 46 56 57 60 60 65 63
36 33 30 28 25 23 22 20 19 21 25 27 28 34 43 51 52 51 52 55 59 58 63 71 60 53 59 66 67 58 63 58 57
48 44 39 36 32 30 27 24 25 44 47 41 43 52 61 60 60 58 58 65 78 67 71 83 74 67 67 72 68 64 70 70 64
41 35 30 27 24 24 32 34 42 52 44 44 55 57 68 68 77 77 71 81 74 82 87 86 87 77 71 77 80 78 78 74 69
33 32 26 26 35 49 41 46 58 61 69 83 92 90 84 94 89 85 96 96 88 82 82 90 87 86 79 79 76 81 83 90 85
40 28 28 57 77 70 68 88 91 88 90 96 95 84 92 75 37 18 56 42 18 38 72 89 91 90 73 71 66 63 77 82 96
51 58 60 93 95 96 96 97 97 97 94 88 74 26 29 24 12 9 8 7 8 8 20 47 78 77 74 69 69 66 67 82 96

GFSFLT1_500_rhum_117.txt.gz
RH
9 9 8 8 8 8 8 8 6 4 3 5 8 11 15 15 14 15 15 15 15 15 15 15 14 14 16 20 24 27 31 33 34
12 11 9 8 9 8 9 8 7 4 3 5 9 12 15 15 15 15 15 15 15 16 17 16 15 14 14 17 24 28 33 35 31
20 15 11 9 10 10 9 8 7 5 4 5 9 12 15 15 15 16 16 17 17 18 19 19 19 17 16 17 22 29 33 37 36
25 20 14 11 11 11 10 9 8 5 4 5 9 12 15 16 16 17 18 18 18 19 20 21 22 20 20 21 22 30 33 38 38
30 21 14 12 12 11 10 9 8 5 5 5 8 12 14 15 15 16 16 17 18 18 19 21 23 22 22 23 25 30 36 39 41
31 21 14 13 13 12 12 11 9 7 6 6 7 10 12 13 14 14 15 15 16 16 18 20 23 24 24 23 24 26 34 40 40
27 20 15 13 12 13 13 13 13 11 8 7 6 7 8 9 11 11 12 13 14 16 18 20 23 25 26 25 23 24 30 36 39
26 21 15 13 14 14 15 14 15 14 13 12 11 10 9 9 10 11 12 14 17 19 21 22 24 25 27 29 27 25 29 35 35
25 23 16 15 14 15 16 15 15 16 15 15 15 15 14 14 15 16 18 19 20 22 23 25 26 28 28 30 31 31 34 38 39
26 24 18 18 16 16 17 18 18 18 18 18 18 18 19 19 20 21 22 22 23 22 22 24 24 21 21 30 34 36 37 41 43
26 25 22 20 19 19 19 18 18 18 19 19 19 20 20 21 22 23 22 23 22 18 15 14 15 31 52 53 39 39 39 38 48
32 26 23 21 20 20 20 20 20 20 20 20 18 19 20 20 20 21 21 15 11 10 14 23 40 55 59 70 54 36 36 48 55
32 29 28 26 25 23 22 20 16 14 15 14 15 16 17 16 16 14 11 10 17 28 42 53 62 60 58 62 52 47 60 57 54
30 28 27 24 22 20 19 18 19 18 17 17 16 15 15 15 14 15 23 37 46 47 48 50 54 55 61 68 57 54 62 65 61
38 34 33 31 30 29 27 24 22 20 19 18 19 24 32 39 43 45 52 54 55 54 51 57 51 50 70 82 73 72 60 58 68
46 40 39 36 32 29 27 25 24 24 23 28 47 50 42 44 52 56 57 64 68 64 63 61 61 60 66 76 75 68 64 64 65
42 40 38 36 37 38 33 30 30 32 44 52 51 45 49 54 75 79 79 59 66 73 74 48 26 39 55 64 58 60 60 58 57
50 51 51 50 44 37 32 32 43 45 49 51 66 79 84 88 88 62 39 27 14 14 11 13 12 16 17 41 62 57 56 51 53
67 64 55 45 39 29 30 54 68 74 86 96 92 89 61 35 31 32 27 14 8 8 7 6 6 5 5 7 45 75 83 85 81
79 63 47 41 38 38 56 87 94 96 98 97 81 80 71 49 28 15 13 12 9 8 7 6 5 4 4 5 6 7 11 26 56

GFSFLT1_500_rhum_120.txt.gz
RH
8 8 8 8 8 8 8 8 6 4 3 5 8 12 14 14 15 15 14 14 15 15 15 15 15 15 14 14 16 19 24 27 28
9 9 9 9 8 8 8 8 7 6 4 4 8 12 14 15 15 15 15 16 16 17 18 18 18 17 15 14 14 17 23 28 30
15 13 11 10 9 9 8 8 8 6 4 5 8 12 15 16 16 17 17 17 17 18 18 19 19 18 18 17 16 17 19 28 31
28 25 19 16 12 10 10 9 8 7 6 5 7 11 14 15 16 16 16 17 17 17 17 18 19 20 20 20 18 17 18 23 30
32 33 27 22 15 12 11 9 9 8 6 5 6 9 12 14 14 15 15 15 15 15 16 17 18 20 20 21 23 22 19 20 26
32 34 32 24 16 13 12 10 10 9 7 6 6 7 9 11 12 13 12 13 12 13 16 18 19 21 22 23 24 25 24 22 24
30 31 32 25 17 14 12 10 11 10 9 8 7 7 7 8 9 9 10 11 12 15 18 20 21 23 24 24 25 28 29 28 26
30 31 30 23 16 14 12 12 12 12 12 12 11 11 10 10 11 11 12 14 17 19 20 21 22 24 24 23 21 25 31 32 31
35 32 28 22 17 15 13 13 12 12 13 13 14 14 14 15 15 16 18 19 20 20 19 21 22 19 17 17 30 53 57 42 36
36 33 28 23 17 16 14 14 15 15 16 16 16 16 17 17 17 19 20 20 19 19 19 17 15 12 16 42 55 57 59 49 40
36 34 29 24 19 17 16 15 17 18 18 18 18 18 19 18 18 17 19 17 15 15 13 11 17 37 59 56 52 54 58 47 48
38 35 30 26 23 20 20 20 20 19 19 20 20 20 16 16 18 18 13 12 12 10 12 31 46 48 49 53 50 53 60 50 54
43 39 33 28 24 21 20 20 20 21 21 20 17 16 17 18 16 12 12 11 12 19 38 48 47 45 48 50 47 57 61 65 60
44 37 35 32 28 26 25 24 23 20 16 17 19 20 17 16 16 17 18 29 41 43 48 50 55 59 55 57 60 68 63 61 60
45 41 39 33 27 25 24 20 20 20 23 21 20 19 19 21 26 34 39 44 47 51 56 60 63 57 47 38 35 52 55 47 48
43 41 34 30 24 23 24 28 28 28 24 23 23 24 27 38 45 49 50 54 63 57 48 32 22 27 28 14 12 22 36 48 54
49 37 32 31 29 33 36 32 30 29 28 28 30 36 44 48 52 70 69 47 25 10 8 8 7 6 6 6 5 5 6 12 28
52 46 37 37 40 39 35 34 37 37 32 34 38 47 60 60 74 57 41 31 29 27 18 10 8 7 6 5 4 4 4 5 8
55 47 44 46 40 40 43 46 44 34 40 48 71 84 85 77 58 34 20 12 10 10 7 5 4 6 6 5 4 4 3 3 4
47 61 90 44 62 56 50 46 38 49 66 67 90 96 94 73 37 25 21 12 8 7 7 6 6 5 5 5 4 3 3 2 2